IZ1UQG-N2 Weather Reports


time (UTC)temp
C
wind
direction
speed
KPH
gust
KPH
rain 1hr
cm
rain 24hr
cm
rain mn
cm
humidity
%
barometer
mb
20260507235346 12 229 4.8 6.4 0.00 0.00 0.00 80 1013.1
20260507235245 12 228 4.8 6.4 0.00 0.00 0.00 80 1013.2
20260507235145 12 227 4.8 9.7 0.00 0.00 0.00 80 1013.1
20260507235046 12 226 4.8 9.7 0.00 0.00 0.00 80 1013.1
20260507234946 12 225 6.4 11.3 0.00 0.00 0.00 80 1013.1
20260507234846 12 224 6.4 11.3 0.00 0.00 0.00 80 1013.2
20260507234745 12 223 6.4 11.3 0.00 0.00 0.00 79 1013.2
20260507234644 12 224 6.4 11.3 0.00 0.00 0.00 79 1013.3
20260507234544 12 224 6.4 11.3 0.00 0.00 0.00 79 1013.2
20260507234446 12 225 6.4 11.3 0.00 0.00 0.00 79 1013.2
20260507234346 12 226 6.4 11.3 0.00 0.00 0.00 79 1013.1
20260507234245 12 227 6.4 11.3 0.00 0.00 0.00 79 1013.2
20260507234146 12 227 4.8 11.3 0.00 0.00 0.00 79 1013.2
20260507234046 12 228 4.8 11.3 0.00 0.00 0.00 79 1013.2
20260507233946 12 230 3.2 11.3 0.00 0.00 0.00 78 1013.2
20260507233845 12 232 3.2 11.3 0.00 0.00 0.00 78 1013.3
20260507233745 12 236 1.6 9.7 0.00 0.00 0.00 78 1013.3
20260507233645 12 241 1.6 6.4 0.00 0.00 0.00 78 1013.2
20260507233545 12 249 1.6 4.8 0.00 0.00 0.00 78 1013.1
20260507233445 13 253 0.0 4.8 0.00 0.00 0.00 78 1013.2
20260507233344 13 246 1.6 9.7 0.00 0.00 0.00 78 1013.1
20260507233246 13 239 1.6 9.7 0.00 0.00 0.00 78 1013.1
20260507233145 13 236 1.6 11.3 0.00 0.00 0.00 78 1013.1
20260507233045 13 233 1.6 11.3 0.00 0.00 0.00 77 1013.2
20260507232945 13 235 3.2 11.3 0.00 0.00 0.00 78 1013.1
20260507232845 13 237 3.2 11.3 0.00 0.00 0.00 77 1013.1
20260507232745 13 237 3.2 11.3 0.00 0.00 0.00 77 1013.2
20260507232646 13 237 3.2 11.3 0.00 0.00 0.00 78 1013.2
20260507232546 13 233 4.8 11.3 0.00 0.00 0.00 78 1013.1
20260507232446 13 230 4.8 11.3 0.00 0.00 0.00 78 1013.2
20260507232345 13 228 6.4 12.9 0.00 0.00 0.00 79 1013.2
20260507232245 13 227 6.4 12.9 0.00 0.00 0.00 79 1013.2
20260507232144 12 226 6.4 12.9 0.00 0.00 0.00 79 1013.2
20260507232046 12 225 6.4 12.9 0.00 0.00 0.00 80 1013.3
20260507231946 12 223 8.0 12.9 0.00 0.00 0.00 80 1013.3
20260507231845 12 221 8.0 12.9 0.00 0.00 0.00 80 1013.3
20260507231745 12 221 8.0 12.9 0.00 0.00 0.00 80 1013.1
20260507231644 12 221 8.0 12.9 0.00 0.00 0.00 80 1013.2
20260507231544 12 221 9.7 12.9 0.00 0.00 0.00 80 1013.4
20260507231446 12 221 9.7 12.9 0.00 0.00 0.00 80 1013.3
20260507231346 12 222 8.0 12.9 0.00 0.00 0.00 80 1013.4
20260507231245 12 223 8.0 12.9 0.00 0.00 0.00 79 1013.3
20260507231145 12 223 8.0 12.9 0.00 0.00 0.00 79 1013.3
20260507231045 12 223 8.0 12.9 0.00 0.00 0.00 79 1013.3
20260507230945 12 224 8.0 12.9 0.00 0.00 0.00 79 1013.3
20260507230844 12 224 8.0 12.9 0.00 0.00 0.00 79 1013.3
20260507230744 12 224 8.0 12.9 0.00 0.00 0.00 79 1013.3
20260507230646 12 224 6.4 12.9 0.00 0.00 0.00 79 1013.3
20260507230546 12 224 6.4 11.3 0.00 0.00 0.00 79 1013.3
20260507230446 12 225 6.4 11.3 0.00 0.00 0.00 79 1013.2
20260507230346 12 224 6.4 11.3 0.00 0.00 0.00 79 1013.2
20260507230245 12 224 4.8 11.3 0.00 0.00 0.00 79 1013.2
20260507230145 13 224 4.8 11.3 0.00 0.00 0.00 79 1013.3
20260507230045 13 225 4.8 9.7 0.00 0.00 0.00 79 1013.1
20260507225946 13 225 4.8 6.4 0.00 0.00 0.00 78 1013.1
20260507225846 13 225 4.8 6.4 0.00 0.00 0.00 78 1013.2
20260507225746 13 225 4.8 6.4 0.00 0.00 0.00 78 1013.2
20260507225645 13 226 4.8 6.4 0.00 0.00 0.00 78 1013.3
20260507225545 13 225 4.8 6.4 0.00 0.00 0.00 78 1013.2
20260507225445 13 225 4.8 4.8 0.00 0.00 0.00 78 1013.1
20260507225344 13 225 4.8 4.8 0.00 0.00 0.00 78 1013.1
20260507225246 13 225 3.2 4.8 0.00 0.00 0.00 78 1013.1
20260507225145 13 226 3.2 6.4 0.00 0.00 0.00 78 1013.1
20260507225045 13 225 4.8 6.4 0.00 0.00 0.00 78 1013.1
20260507224945 13 224 4.8 9.7 0.00 0.00 0.00 78 1013.1
20260507224845 13 223 4.8 11.3 0.00 0.00 0.00 78 1013.0
20260507224744 13 221 4.8 11.3 0.00 0.00 0.00 78 1013.0
20260507224645 13 220 4.8 11.3 0.00 0.00 0.00 78 1013.0
20260507224545 13 221 4.8 11.3 0.00 0.00 0.00 78 1013.1
20260507224445 13 221 6.4 11.3 0.00 0.00 0.00 78 1013.1
20260507224344 13 220 6.4 11.3 0.00 0.00 0.00 78 1013.1
20260507224244 13 220 6.4 11.3 0.00 0.00 0.00 78 1013.0
20260507224146 13 220 8.0 11.3 0.00 0.00 0.00 78 1013.1
20260507224045 13 220 8.0 11.3 0.00 0.00 0.00 78 1013.0
20260507223945 13 221 8.0 11.3 0.00 0.00 0.00 78 1013.1
20260507223846 13 221 8.0 11.3 0.00 0.00 0.00 78 1013.1
20260507223746 13 223 8.0 11.3 0.00 0.00 0.00 78 1013.1
20260507223645 13 225 6.4 11.3 0.00 0.00 0.00 77 1013.1
20260507223545 13 225 6.4 11.3 0.00 0.00 0.00 77 1013.0
20260507223445 13 227 6.4 11.3 0.00 0.00 0.00 77 1013.0
20260507223345 13 229 4.8 11.3 0.00 0.00 0.00 77 1013.0
20260507223246 13 232 4.8 11.3 0.00 0.00 0.00 77 1013.1
20260507223146 13 236 4.8 11.3 0.00 0.00 0.00 77 1013.0
20260507223045 13 239 4.8 11.3 0.00 0.00 0.00 77 1013.0
20260507222945 13 243 3.2 11.3 0.00 0.00 0.00 77 1013.0
20260507222845 13 247 3.2 9.7 0.00 0.00 0.00 77 1013.1
20260507222745 13 248 1.6 9.7 0.00 0.00 0.00 77 1013.0
20260507222646 13 248 1.6 4.8 0.00 0.00 0.00 77 1013.0
20260507222546 13 247 1.6 4.8 0.00 0.00 0.00 77 1012.9
20260507222446 13 243 1.6 4.8 0.00 0.00 0.00 77 1012.8
20260507222345 13 237 3.2 4.8 0.00 0.00 0.00 77 1012.8
20260507222245 13 231 3.2 4.8 0.00 0.00 0.00 76 1013.0
20260507222144 13 226 3.2 9.7 0.00 0.00 0.00 76 1013.0
20260507222046 13 221 3.2 9.7 0.00 0.00 0.00 76 1013.0
20260507221946 13 218 3.2 9.7 0.00 0.00 0.00 76 1012.8
20260507221846 13 218 4.8 11.3 0.00 0.00 0.00 76 1012.8
20260507221745 13 216 4.8 11.3 0.00 0.00 0.00 77 1012.8
20260507221644 13 216 6.4 11.3 0.00 0.00 0.00 77 1012.8
20260507221544 13 215 6.4 11.3 0.00 0.00 0.00 77 1012.9
20260507221446 13 214 6.4 12.9 0.00 0.00 0.00 77 1012.9
20260507221346 13 213 8.0 12.9 0.00 0.00 0.00 77 1012.8
20260507221246 13 213 8.0 12.9 0.00 0.00 0.00 77 1012.8
20260507221145 13 212 8.0 12.9 0.00 0.00 0.00 77 1012.8
20260507221045 13 211 8.0 12.9 0.00 0.00 0.00 77 1012.8
20260507220945 13 211 8.0 12.9 0.00 0.00 0.00 76 1012.8
20260507220844 13 211 8.0 12.9 0.00 0.00 0.00 76 1012.8
20260507220744 13 212 8.0 12.9 0.00 0.00 0.00 76 1012.8
20260507220645 13 213 6.4 12.9 0.00 0.00 0.00 76 1012.8
20260507220545 13 215 6.4 12.9 0.00 0.00 0.00 76 1012.8
20260507220445 13 218 6.4 12.9 0.00 0.00 0.00 76 1012.9
20260507220345 13 221 4.8 12.9 0.00 0.00 0.00 76 1012.9
20260507220245 13 228 3.2 11.3 0.00 0.00 0.00 76 1012.9
20260507220144 14 239 3.2 11.3 0.00 0.00 0.00 76 1012.8
20260507220045 14 253 3.2 6.4 0.00 0.00 0.00 76 1012.8
20260507215945 14 272 3.2 4.8 0.00 0.00 0.00 76 1012.8
20260507215845 14 288 3.2 6.4 0.00 0.00 0.00 76 1012.9
20260507215745 14 298 3.2 6.4 0.00 0.00 0.00 76 1012.8
20260507215646 14 305 3.2 6.4 0.00 0.00 0.00 76 1012.9
20260507215546 14 308 1.6 6.4 0.00 0.00 0.00 76 1012.9
20260507215446 14 312 1.6 6.4 0.00 0.00 0.00 76 1012.9
20260507215345 14 314 1.6 6.4 0.00 0.00 0.00 75 1012.8
20260507215244 14 315 1.6 6.4 0.00 0.00 0.00 75 1012.8
20260507215146 14 315 1.6 6.4 0.00 0.00 0.00 75 1012.9
20260507215045 14 313 1.6 6.4 0.00 0.00 0.00 75 1012.7
20260507214945 14 307 0.0 6.4 0.00 0.00 0.00 75 1012.7
20260507214845 14 297 0.0 6.4 0.00 0.00 0.00 75 1012.7
20260507214745 14 277 0.0 1.6 0.00 0.00 0.00 75 1012.7
20260507214645 14 273 0.0 1.6 0.00 0.00 0.00 75 1012.7
20260507214545 14 275 0.0 1.6 0.00 0.00 0.00 75 1012.6
20260507214445 14 278 0.0 1.6 0.00 0.00 0.00 75 1012.8
20260507214344 14 276 0.0 1.6 0.00 0.00 0.00 75 1012.7
20260507214245 14 276 0.0 1.6 0.00 0.00 0.00 75 1012.6
20260507214145 14 270 0.0 4.8 0.00 0.00 0.00 74 1012.6
20260507214045 14 263 1.6 9.7 0.00 0.00 0.00 74 1012.6
20260507213946 15 253 1.6 9.7 0.00 0.00 0.00 75 1012.6
20260507213846 14 246 3.2 9.7 0.00 0.00 0.00 75 1012.6
20260507213746 15 239 3.2 11.3 0.00 0.00 0.00 74 1012.6
20260507213646 14 235 3.2 11.3 0.00 0.00 0.00 74 1012.6
20260507213545 14 231 4.8 11.3 0.00 0.00 0.00 74 1012.7
20260507213445 14 228 4.8 11.3 0.00 0.00 0.00 74 1012.7
20260507213344 14 226 6.4 11.3 0.00 0.00 0.00 75 1012.7
20260507213246 14 224 6.4 11.3 0.00 0.00 0.00 74 1012.7
20260507213145 14 222 6.4 11.3 0.00 0.00 0.00 74 1012.7
20260507213045 14 221 6.4 11.3 0.00 0.00 0.00 74 1012.7
20260507212945 14 220 4.8 11.3 0.00 0.00 0.00 74 1012.7
20260507212844 14 220 4.8 11.3 0.00 0.00 0.00 74 1012.7
20260507212744 14 221 4.8 11.3 0.00 0.00 0.00 75 1012.7
20260507212645 14 223 4.8 11.3 0.00 0.00 0.00 74 1012.8
20260507212545 14 225 3.2 11.3 0.00 0.00 0.00 74 1012.6
20260507212445 14 230 3.2 11.3 0.00 0.00 0.00 74 1012.7
20260507212345 15 235 1.6 6.4 0.00 0.00 0.00 74 1012.7
20260507212246 15 240 1.6 6.4 0.00 0.00 0.00 74 1012.6
20260507212146 15 246 1.6 4.8 0.00 0.00 0.00 74 1012.6
20260507212045 15 250 1.6 4.8 0.00 0.00 0.00 74 1012.6
20260507211945 15 252 1.6 4.8 0.00 0.00 0.00 74 1012.6
20260507211845 15 256 1.6 4.8 0.00 0.00 0.00 74 1012.5
20260507211744 15 262 1.6 4.8 0.00 0.00 0.00 74 1012.5
20260507211646 15 269 0.0 3.2 0.00 0.00 0.00 74 1012.6
20260507211546 15 274 0.0 3.2 0.00 0.00 0.00 74 1012.6
20260507211446 15 278 0.0 1.6 0.00 0.00 0.00 74 1012.5
20260507211344 15 276 0.0 1.6 0.00 0.00 0.00 74 1012.5
20260507211244 15 274 0.0 3.2 0.00 0.00 0.00 74 1012.5
20260507211146 15 275 0.0 3.2 0.00 0.00 0.00 75 1012.5
20260507211045 15 275 1.6 3.2 0.00 0.00 0.00 75 1012.5
20260507210945 15 278 1.6 3.2 0.00 0.00 0.00 75 1012.5
20260507210845 14 284 1.6 3.2 0.00 0.00 0.00 75 1012.6
20260507210745 14 294 1.6 3.2 0.00 0.00 0.00 75 1012.6
20260507210644 14 301 1.6 3.2 0.00 0.00 0.00 75 1012.6
20260507210546 14 311 1.6 3.2 0.00 0.00 0.00 75 1012.7
20260507210446 14 319 1.6 4.8 0.00 0.00 0.00 75 1012.7
20260507210346 14 328 1.6 4.8 0.00 0.00 0.00 75 1012.6
20260507210245 14 336 1.6 4.8 0.00 0.00 0.00 76 1012.6
20260507210145 14 341 3.2 4.8 0.00 0.00 0.00 76 1012.6
20260507210045 14 348 3.2 6.4 0.00 0.00 0.00 76 1012.6
20260507205944 14 352 3.2 6.4 0.00 0.00 0.00 76 1012.6
20260507205846 14 352 3.2 6.4 0.00 0.00 0.00 75 1012.5
20260507205746 14 351 3.2 6.4 0.00 0.00 0.00 75 1012.6
20260507205645 14 352 3.2 6.4 0.00 0.00 0.00 76 1012.6
20260507205545 14 352 4.8 6.4 0.00 0.00 0.00 76 1012.5
20260507205445 14 352 4.8 6.4 0.00 0.00 0.00 76 1012.5
20260507205344 14 352 4.8 6.4 0.00 0.00 0.00 76 1012.6
20260507205246 14 353 4.8 6.4 0.00 0.00 0.00 76 1012.5
20260507205145 14 352 4.8 6.4 0.00 0.00 0.00 76 1012.5
20260507205045 14 350 4.8 6.4 0.00 0.00 0.00 77 1012.5
20260507204945 14 350 4.8 6.4 0.00 0.00 0.00 77 1012.5
20260507204844 14 351 4.8 6.4 0.00 0.00 0.00 76 1012.4
20260507204744 14 351 4.8 6.4 0.00 0.00 0.00 76 1012.5
20260507204645 14 348 4.8 6.4 0.00 0.00 0.00 76 1012.5
20260507204544 14 345 4.8 6.4 0.00 0.00 0.00 76 1012.6
20260507204446 14 341 4.8 6.4 0.00 0.00 0.00 76 1012.5
20260507204346 14 337 3.2 6.4 0.00 0.00 0.00 76 1012.5
20260507204246 14 332 3.2 6.4 0.00 0.00 0.00 76 1012.5
20260507204145 14 328 3.2 6.4 0.00 0.00 0.00 76 1012.4
20260507204045 15 322 3.2 6.4 0.00 0.00 0.00 76 1012.5
20260507203945 15 318 3.2 4.8 0.00 0.00 0.00 75 1012.4
20260507203845 15 314 1.6 3.2 0.00 0.00 0.00 75 1012.4
20260507203745 15 310 1.6 3.2 0.00 0.00 0.00 75 1012.4
20260507203644 15 308 1.6 3.2 0.00 0.00 0.00 74 1012.4
20260507203546 15 306 1.6 3.2 0.00 0.00 0.00 74 1012.3
20260507203446 15 304 0.0 3.2 0.00 0.00 0.00 74 1012.3
20260507203346 15 300 0.0 3.2 0.00 0.00 0.00 74 1012.3
20260507203245 15 294 0.0 3.2 0.00 0.00 0.00 74 1012.2
20260507203145 15 276 0.0 1.6 0.00 0.00 0.00 74 1012.2
20260507203045 15 263 0.0 1.6 0.00 0.00 0.00 74 1012.2
20260507202944 15 263 0.0 1.6 0.00 0.00 0.00 74 1012.2
20260507202846 15 263 0.0 1.6 0.00 0.00 0.00 74 1012.1
20260507202746 15 263 0.0 1.6 0.00 0.00 0.00 73 1012.2
20260507202645 15 264 0.0 1.6 0.00 0.00 0.00 73 1012.1
20260507202545 15 264 0.0 1.6 0.00 0.00 0.00 73 1012.1
20260507202445 15 264 0.0 1.6 0.00 0.00 0.00 73 1012.1
20260507202344 15 264 0.0 1.6 0.00 0.00 0.00 73 1012.1
20260507202246 15 264 0.0 1.6 0.00 0.00 0.00 72 1012.1
20260507202146 15 261 0.0 0.0 0.00 0.00 0.00 72 1011.9
20260507202045 15 259 0.0 0.0 0.00 0.00 0.00 72 1011.9
20260507201944 15 259 0.0 0.0 0.00 0.00 0.00 72 1011.9
20260507201844 15 249 0.0 1.6 0.00 0.00 0.00 71 1011.9
20260507201746 15 235 0.0 1.6 0.00 0.00 0.00 71 1011.9
20260507201645 15 225 0.0 3.2 0.00 0.00 0.00 71 1011.9
20260507201545 15 222 0.0 3.2 0.00 0.00 0.00 71 1011.8
20260507201444 15 222 0.0 3.2 0.00 0.00 0.00 71 1011.9
20260507201346 15 222 0.0 3.2 0.00 0.00 0.00 71 1011.9
20260507201246 15 219 1.6 3.2 0.00 0.00 0.00 71 1011.8
20260507201145 15 219 1.6 3.2 0.00 0.00 0.00 71 1011.7
20260507201045 15 219 1.6 3.2 0.00 0.00 0.00 70 1011.7
20260507200946 15 219 1.6 3.2 0.00 0.00 0.00 70 1011.7
20260507200845 15 218 1.6 3.2 0.00 0.00 0.00 70 1011.7
20260507200745 15 216 1.6 3.2 0.00 0.00 0.00 70 1011.7
20260507200645 15 214 1.6 3.2 0.00 0.00 0.00 70 1011.7
20260507200545 15 213 1.6 3.2 0.00 0.00 0.00 70 1011.7
20260507200445 15 212 1.6 3.2 0.00 0.00 0.00 70 1011.7
20260507200345 15 210 1.6 3.2 0.00 0.00 0.00 70 1011.8
20260507200245 15 209 1.6 3.2 0.00 0.00 0.00 70 1011.6
20260507200145 15 207 0.0 3.2 0.00 0.00 0.00 70 1011.7
20260507200045 15 205 0.0 3.2 0.00 0.00 0.00 70 1011.6
20260507195946 15 200 0.0 3.2 0.00 0.00 0.00 70 1011.5
20260507195846 15 196 0.0 3.2 0.00 0.00 0.00 70 1011.5
20260507195746 15 196 0.0 1.6 0.00 0.00 0.00 70 1011.5
20260507195644 15 195 0.0 1.6 0.00 0.00 0.00 70 1011.5
20260507195544 15 192 0.0 1.6 0.00 0.00 0.00 70 1011.5
20260507195444 16 189 0.0 1.6 0.00 0.00 0.00 70 1011.5
20260507195346 16 188 0.0 3.2 0.00 0.00 0.00 70 1011.5
20260507195244 16 191 0.0 3.2 0.00 0.00 0.00 70 1011.5
20260507195146 16 192 0.0 3.2 0.00 0.00 0.00 70 1011.5
20260507195045 16 194 0.0 3.2 0.00 0.00 0.00 69 1011.5
20260507194945 16 194 0.0 3.2 0.00 0.00 0.00 69 1011.4
20260507194845 15 194 0.0 3.2 0.00 0.00 0.00 69 1011.4
20260507194745 16 198 0.0 3.2 0.00 0.00 0.00 69 1011.4
20260507194646 16 206 0.0 3.2 0.00 0.00 0.00 69 1011.3
20260507194546 16 210 0.0 3.2 0.00 0.00 0.00 69 1011.4
20260507194445 16 218 0.0 3.2 0.00 0.00 0.00 69 1011.4
20260507194345 16 220 0.0 3.2 0.00 0.00 0.00 69 1011.3
20260507194245 16 196 0.0 4.8 0.00 0.00 0.00 69 1011.2
20260507194144 16 182 0.0 4.8 0.00 0.00 0.00 70 1011.4
20260507194044 16 172 0.0 4.8 0.00 0.00 0.00 69 1011.4
20260507193944 16 171 1.6 4.8 0.00 0.00 0.00 69 1011.1
20260507193845 16 172 1.6 4.8 0.00 0.00 0.00 69 1011.2
20260507193745 16 169 1.6 4.8 0.00 0.00 0.00 69 1011.2
20260507193645 16 167 1.6 6.4 0.00 0.00 0.00 69 1011.1
20260507193544 16 172 3.2 6.4 0.00 0.00 0.00 68 1011.1
20260507193444 16 173 3.2 6.4 0.00 0.00 0.00 68 1011.0
20260507193346 16 176 3.2 12.9 0.00 0.00 0.00 68 1011.1
20260507193245 16 179 3.2 12.9 0.00 0.00 0.00 68 1011.0
20260507193145 16 182 4.8 12.9 0.00 0.00 0.00 68 1011.1
20260507193045 16 182 4.8 12.9 0.00 0.00 0.00 68 1011.0
20260507192944 16 186 4.8 12.9 0.00 0.00 0.00 68 1011.0
20260507192844 16 188 6.4 12.9 0.00 0.00 0.00 68 1011.0
20260507192744 16 189 6.4 12.9 0.00 0.00 0.00 68 1011.0
20260507192646 16 191 6.4 12.9 0.00 0.00 0.00 68 1011.0
20260507192546 16 191 6.4 12.9 0.00 0.00 0.00 68 1010.9
20260507192446 16 193 8.0 12.9 0.00 0.00 0.00 68 1010.9
20260507192345 16 194 6.4 12.9 0.00 0.00 0.00 68 1011.0
20260507192245 16 194 8.0 12.9 0.00 0.00 0.00 68 1010.9
20260507192145 16 196 8.0 12.9 0.00 0.00 0.00 68 1010.9
20260507192044 16 198 8.0 12.9 0.00 0.00 0.00 68 1011.0
20260507191944 16 198 8.0 12.9 0.00 0.00 0.00 68 1010.9
20260507191846 16 200 8.0 12.9 0.00 0.00 0.00 68 1010.9
20260507191745 16 201 8.0 12.9 0.00 0.00 0.00 68 1010.9
20260507191645 16 203 8.0 12.9 0.00 0.00 0.00 68 1010.8
20260507191545 16 204 8.0 12.9 0.00 0.00 0.00 68 1010.9
20260507191444 16 206 8.0 12.9 0.00 0.00 0.00 68 1010.9
20260507191346 16 208 6.4 12.9 0.00 0.00 0.00 68 1010.9
20260507191246 16 211 6.4 12.9 0.00 0.03 0.00 67 1010.8
20260507191145 16 213 6.4 12.9 0.00 0.03 0.00 67 1010.8
20260507191045 16 215 6.4 12.9 0.00 0.03 0.00 67 1010.9
20260507190944 16 216 6.4 12.9 0.00 0.03 0.00 67 1010.9
20260507190846 16 219 6.4 12.9 0.00 0.03 0.00 67 1010.9
20260507190746 16 223 4.8 12.9 0.00 0.03 0.00 67 1010.8
20260507190645 16 225 4.8 12.9 0.00 0.03 0.00 67 1010.9
20260507190545 16 226 4.8 12.9 0.00 0.03 0.00 67 1010.7
20260507190445 16 225 6.4 12.9 0.00 0.03 0.00 67 1010.9
20260507190345 16 222 6.4 12.9 0.00 0.05 0.00 67 1010.8
20260507190245 16 220 6.4 12.9 0.00 0.05 0.00 67 1010.8
20260507190145 16 218 6.4 12.9 0.00 0.05 0.00 67 1010.8
20260507190046 16 216 6.4 12.9 0.00 0.05 0.00 67 1010.8
20260507185945 16 215 6.4 12.9 0.00 0.05 0.00 67 1010.8
20260507185845 16 213 6.4 11.3 0.00 0.08 0.00 67 1010.8
20260507185745 16 211 6.4 11.3 0.00 0.08 0.00 67 1010.7
20260507185644 16 208 8.0 14.5 0.00 0.08 0.00 67 1010.7
20260507185544 16 207 8.0 14.5 0.00 0.08 0.00 67 1010.7
20260507185444 16 206 8.0 14.5 0.00 0.08 0.00 67 1010.7
20260507185345 16 205 8.0 14.5 0.00 0.08 0.00 67 1010.7
20260507185245 16 205 8.0 14.5 0.00 0.08 0.00 67 1010.7
20260507185145 16 205 8.0 14.5 0.00 0.08 0.00 67 1010.7
20260507185044 16 205 8.0 14.5 0.00 0.10 0.00 67 1010.6
20260507184944 16 205 8.0 14.5 0.00 0.10 0.00 67 1010.7
20260507184846 16 205 9.7 14.5 0.00 0.10 0.00 67 1010.7
20260507184745 16 204 9.7 14.5 0.00 0.10 0.00 66 1010.7
20260507184645 16 205 9.7 16.1 0.00 0.10 0.00 67 1010.7
20260507184545 16 205 9.7 16.1 0.00 0.13 0.00 66 1010.7
20260507184444 16 205 9.7 16.1 0.00 0.13 0.00 66 1010.7
20260507184344 16 205 9.7 16.1 0.00 0.13 0.00 66 1010.6
20260507184246 16 206 9.7 16.1 0.00 0.13 0.00 66 1010.6
20260507184145 16 205 9.7 16.1 0.00 0.15 0.00 66 1010.7
20260507184045 16 206 9.7 16.1 0.00 0.15 0.00 66 1010.6
20260507183945 16 206 9.7 16.1 0.00 0.15 0.00 66 1010.7
20260507183845 16 207 8.0 16.1 0.00 0.15 0.00 66 1010.6
20260507183745 16 208 8.0 16.1 0.00 0.15 0.00 66 1010.6
20260507183645 16 207 8.0 14.5 0.00 0.18 0.00 66 1010.6
20260507183544 16 208 8.0 14.5 0.00 0.18 0.00 66 1010.7
20260507183444 16 209 8.0 14.5 0.00 0.18 0.00 66 1010.7
20260507183346 16 209 8.0 12.9 0.00 0.18 0.00 66 1010.6
20260507183246 16 210 6.4 12.9 0.00 0.20 0.00 66 1010.6
20260507183146 16 211 6.4 11.3 0.00 0.23 0.00 65 1010.6
20260507183045 16 212 6.4 11.3 0.00 0.25 0.00 65 1010.6
20260507182944 16 214 4.8 11.3 0.00 0.25 0.00 65 1010.6
20260507182846 16 216 4.8 11.3 0.00 0.28 0.00 65 1010.6
20260507182746 16 217 4.8 11.3 0.00 0.28 0.00 65 1010.5
20260507182645 16 220 4.8 11.3 0.00 0.28 0.00 65 1010.6
20260507182545 17 220 3.2 11.3 0.00 0.28 0.00 65 1010.5
20260507182445 17 222 3.2 11.3 0.00 0.28 0.00 65 1010.5
20260507182345 17 226 1.6 6.4 0.00 0.30 0.00 65 1010.5
20260507182245 17 227 1.6 6.4 0.00 0.30 0.00 65 1010.5
20260507182145 17 232 1.6 6.4 0.00 0.30 0.00 65 1010.4
20260507182044 17 233 1.6 6.4 0.00 0.30 0.00 65 1010.4
20260507181944 17 238 1.6 6.4 0.00 0.30 0.00 65 1010.4
20260507181846 17 242 1.6 6.4 0.00 0.30 0.00 65 1010.4
20260507181745 17 250 0.0 3.2 0.00 0.30 0.00 65 1010.4
20260507181645 17 254 0.0 3.2 0.00 0.30 0.00 65 1010.4
20260507181545 17 260 0.0 3.2 0.00 0.30 0.00 65 1010.3
20260507181444 17 263 0.0 3.2 0.00 0.30 0.00 65 1010.3
20260507181346 16 268 0.0 3.2 0.00 0.30 0.00 65 1010.3
20260507181246 16 278 0.0 3.2 0.00 0.30 0.00 65 1010.2
20260507181144 16 292 0.0 3.2 0.00 0.30 0.00 65 1010.3
20260507181044 16 311 0.0 1.6 0.00 0.30 0.00 64 1010.3
20260507180944 16 321 0.0 1.6 0.00 0.30 0.00 64 1010.3
20260507180845 17 322 0.0 1.6 0.00 0.30 0.00 64 1010.3
20260507180745 17 320 0.0 0.0 0.00 0.30 0.00 64 1010.3
20260507180645 17 318 0.0 1.6 0.00 0.30 0.00 64 1010.3
20260507180545 17 316 0.0 1.6 0.00 0.30 0.00 64 1010.3
20260507180445 17 315 0.0 1.6 0.00 0.30 0.00 64 1010.2
20260507180346 17 315 0.0 1.6 0.00 0.30 0.00 63 1010.2
20260507180245 17 312 0.0 1.6 0.00 0.30 0.00 63 1010.2
20260507180145 17 297 0.0 3.2 0.00 0.30 0.00 63 1010.2
20260507180045 17 277 0.0 3.2 0.00 0.30 0.00 63 1010.1
20260507175944 17 266 0.0 4.8 0.00 0.30 0.00 63 1010.1
20260507175844 17 254 1.6 4.8 0.00 0.30 0.00 63 1010.1
20260507175746 17 240 1.6 6.4 0.00 0.30 0.00 63 1010.1
20260507175645 17 231 1.6 6.4 0.00 0.30 0.00 63 1010.1
20260507175545 17 224 3.2 6.4 0.00 0.30 0.00 63 1010.1
20260507175445 17 221 3.2 9.7 0.00 0.30 0.00 63 1010.1
20260507175345 17 217 3.2 9.7 0.00 0.30 0.00 63 1010.1
20260507175244 17 213 4.8 9.7 0.00 0.30 0.00 63 1010.0
20260507175144 17 211 4.8 9.7 0.00 0.30 0.00 63 1010.1
20260507175045 17 210 4.8 9.7 0.00 0.30 0.00 63 1010.1
20260507174945 17 210 6.4 9.7 0.00 0.30 0.00 62 1010.0
20260507174845 17 210 6.4 9.7 0.00 0.30 0.00 62 1010.0
20260507174745 17 210 6.4 9.7 0.00 0.30 0.00 62 1010.0
20260507174646 17 209 6.4 9.7 0.00 0.30 0.00 62 1010.1
20260507174546 17 209 6.4 9.7 0.00 0.30 0.00 63 1010.1
20260507174445 17 210 6.4 9.7 0.00 0.30 0.00 62 1010.1
20260507174345 17 211 6.4 9.7 0.00 0.30 0.00 62 1010.1
20260507174245 17 211 6.4 9.7 0.00 0.30 0.00 62 1010.1
20260507174146 17 212 6.4 9.7 0.00 0.30 0.00 62 1010.1
20260507174046 17 212 6.4 11.3 0.00 0.30 0.00 62 1010.1
20260507173946 17 211 6.4 11.3 0.00 0.30 0.00 62 1010.0
20260507173845 17 211 6.4 11.3 0.00 0.30 0.00 62 1010.0
20260507173745 17 210 6.4 11.3 0.00 0.30 0.00 61 1010.0
20260507173646 17 211 6.4 11.3 0.00 0.30 0.00 61 1010.0
20260507173545 17 210 6.4 11.3 0.00 0.30 0.00 61 1010.0
20260507173445 17 209 6.4 11.3 0.00 0.30 0.00 60 1010.0
20260507173345 17 208 6.4 11.3 0.00 0.30 0.00 61 1009.9
20260507173244 17 208 6.4 11.3 0.00 0.30 0.00 60 1009.9
20260507173144 18 208 6.4 11.3 0.00 0.30 0.00 60 1009.9
20260507173044 18 208 6.4 9.7 0.00 0.30 0.00 60 1009.9
20260507172946 18 209 6.4 9.7 0.00 0.30 0.00 60 1009.9
20260507172846 18 209 6.4 9.7 0.00 0.30 0.00 59 1009.9
20260507172746 18 209 6.4 9.7 0.00 0.30 0.00 59 1009.9
20260507172644 18 209 4.8 9.7 0.00 0.30 0.00 59 1009.9
20260507172544 18 209 4.8 6.4 0.00 0.30 0.00 59 1009.8
20260507172444 18 209 4.8 6.4 0.00 0.30 0.00 58 1009.8
20260507172344 18 209 4.8 6.4 0.00 0.30 0.00 58 1009.8
20260507172244 18 209 4.8 6.4 0.00 0.30 0.00 58 1009.8
20260507172146 18 208 4.8 6.4 0.00 0.30 0.00 58 1009.8
20260507172045 18 208 4.8 6.4 0.00 0.30 0.00 57 1009.8
20260507171945 18 207 4.8 6.4 0.00 0.30 0.00 56 1009.7
20260507171845 18 207 4.8 6.4 0.00 0.30 0.00 56 1009.8
20260507171744 18 207 4.8 9.7 0.00 0.30 0.00 55 1009.7
20260507171644 18 206 4.8 9.7 0.00 0.30 0.00 55 1009.8
20260507171546 18 205 4.8 9.7 0.00 0.30 0.00 55 1009.7
20260507171445 18 205 6.4 9.7 0.00 0.30 0.00 54 1009.7
20260507171345 18 205 6.4 9.7 0.00 0.30 0.00 54 1009.7
20260507171245 18 205 6.4 9.7 0.00 0.30 0.00 54 1009.7
20260507171144 18 204 6.4 9.7 0.00 0.30 0.00 55 1009.7
20260507171044 18 204 6.4 9.7 0.00 0.30 0.00 54 1009.8
20260507170944 18 204 6.4 9.7 0.00 0.30 0.00 54 1009.8
20260507170846 18 203 4.8 9.7 0.00 0.30 0.00 54 1009.8
20260507170746 18 201 4.8 9.7 0.00 0.30 0.00 54 1009.7
20260507170646 18 200 4.8 9.7 0.00 0.30 0.00 53 1009.6
20260507170545 18 198 4.8 9.7 0.00 0.30 0.00 53 1009.6
20260507170445 18 194 4.8 9.7 0.00 0.30 0.00 53 1009.6
20260507170345 18 196 4.8 9.7 0.00 0.30 0.00 52 1009.6
20260507170245 18 195 4.8 9.7 0.00 0.30 0.00 53 1009.5
20260507170146 19 195 4.8 9.7 0.00 0.30 0.00 52 1009.6
20260507170046 19 193 3.2 9.7 0.00 0.30 0.00 53 1009.6
20260507165946 19 193 3.2 9.7 0.00 0.30 0.00 52 1009.6
20260507165845 19 197 4.8 9.7 0.00 0.30 0.00 52 1009.5
20260507165745 19 202 4.8 9.7 0.00 0.30 0.00 52 1009.5
20260507165644 19 206 4.8 9.7 0.00 0.30 0.00 51 1009.4
20260507165544 19 209 3.2 9.7 0.00 0.30 0.00 51 1009.5
20260507165444 19 216 3.2 9.7 0.00 0.30 0.00 50 1009.5
20260507165346 19 214 3.2 9.7 0.00 0.30 0.00 51 1009.6
20260507165245 19 220 3.2 9.7 0.00 0.30 0.00 51 1009.5
20260507165145 19 224 3.2 9.7 0.00 0.30 0.00 51 1009.6
20260507165045 19 227 3.2 9.7 0.00 0.30 0.00 50 1009.5
20260507164945 19 232 3.2 9.7 0.00 0.30 0.00 50 1009.5
20260507164845 19 233 3.2 9.7 0.00 0.30 0.00 50 1009.5
20260507164745 20 233 3.2 9.7 0.00 0.30 0.00 50 1009.5
20260507164646 20 238 1.6 9.7 0.00 0.30 0.00 50 1009.5
20260507164547 20 244 1.6 9.7 0.00 0.30 0.00 50 1009.5
20260507164445 20 244 1.6 9.7 0.00 0.30 0.00 50 1009.5
20260507164345 20 253 1.6 9.7 0.00 0.30 0.00 50 1009.4
20260507164245 20 260 1.6 6.4 0.00 0.30 0.00 49 1009.5
20260507164144 20 266 1.6 6.4 0.00 0.30 0.00 49 1009.5
20260507164046 20 277 1.6 6.4 0.00 0.30 0.00 50 1009.6
20260507163946 20 279 1.6 6.4 0.00 0.30 0.00 50 1009.6
20260507163845 20 283 3.2 6.4 0.00 0.30 0.00 50 1009.6
20260507163745 20 288 3.2 6.4 0.00 0.30 0.00 50 1009.5
20260507163645 20 291 3.2 6.4 0.00 0.30 0.00 50 1009.5
20260507163545 20 300 3.2 6.4 0.00 0.30 0.00 50 1009.5
20260507163444 20 309 3.2 6.4 0.00 0.30 0.00 50 1009.5
20260507163344 20 317 3.2 6.4 0.00 0.30 0.00 50 1009.5
20260507163246 20 323 1.6 6.4 0.00 0.30 0.00 50 1009.5
20260507163145 20 329 1.6 6.4 0.00 0.30 0.00 50 1009.5
20260507163045 20 333 1.6 6.4 0.00 0.30 0.00 52 1009.5
20260507162945 20 334 1.6 4.8 0.00 0.30 0.00 52 1009.5
20260507162845 20 332 1.6 4.8 0.00 0.30 0.00 52 1009.5
20260507162745 20 331 1.6 6.4 0.00 0.30 0.00 52 1009.4
20260507162646 20 329 3.2 6.4 0.00 0.30 0.00 52 1009.3
20260507162546 20 326 3.2 6.4 0.00 0.30 0.00 51 1009.3
20260507162445 20 319 3.2 6.4 0.00 0.30 0.00 51 1009.4
20260507162345 20 304 3.2 6.4 0.00 0.30 0.00 50 1009.4
20260507162244 20 283 3.2 9.7 0.00 0.30 0.00 50 1009.4
20260507162146 20 268 3.2 9.7 0.00 0.30 0.00 49 1009.4
20260507162046 20 253 3.2 9.7 0.00 0.30 0.00 48 1009.3
20260507161946 20 243 3.2 11.3 0.00 0.30 0.00 47 1009.2
20260507161845 21 242 3.2 11.3 0.00 0.30 0.00 47 1009.2
20260507161745 21 237 3.2 11.3 0.00 0.30 0.00 46 1009.2
20260507161646 21 224 3.2 11.3 0.00 0.30 0.00 42 1009.2
20260507161546 21 212 3.2 11.3 0.00 0.30 0.00 41 1009.2
20260507161446 21 200 4.8 11.3 0.00 0.30 0.00 41 1009.2
20260507161346 21 189 3.2 11.3 0.00 0.30 0.00 41 1009.1
20260507161245 21 142 3.2 11.3 0.00 0.30 0.00 43 1009.1
20260507161144 21 129 4.8 14.5 0.00 0.30 0.00 44 1009.1
20260507161046 21 105 3.2 14.5 0.00 0.30 0.00 44 1009.1
20260507160946 21 100 3.2 14.5 0.00 0.30 0.00 42 1009.1
20260507160844 21 100 3.2 14.5 0.00 0.30 0.00 42 1009.1
20260507160744 21 98 3.2 14.5 0.00 0.30 0.00 41 1009.1
20260507160646 21 96 3.2 14.5 0.00 0.30 0.00 41 1009.1
20260507160545 21 91 3.2 14.5 0.00 0.30 0.00 41 1009.2
20260507160445 21 80 3.2 14.5 0.00 0.30 0.00 41 1009.3
20260507160344 21 73 3.2 14.5 0.00 0.30 0.00 41 1009.2
20260507160246 21 63 3.2 14.5 0.00 0.30 0.00 42 1009.2
20260507160145 21 38 3.2 9.7 0.00 0.30 0.00 42 1009.1
20260507160045 21 48 3.2 11.3 0.00 0.30 0.00 43 1009.2
20260507155945 21 47 3.2 11.3 0.00 0.30 0.00 44 1009.1
20260507155844 21 47 3.2 11.3 0.00 0.30 0.00 44 1009.1
20260507155744 21 46 3.2 11.3 0.00 0.30 0.00 44 1009.1
20260507155645 21 52 3.2 12.9 0.00 0.30 0.00 44 1009.1
20260507155546 21 56 3.2 12.9 0.00 0.30 0.00 44 1009.1
20260507155445 21 64 4.8 12.9 0.00 0.30 0.00 44 1009.1
20260507155345 21 76 4.8 12.9 0.00 0.30 0.00 44 1009.1
20260507155244 21 80 4.8 12.9 0.00 0.30 0.00 42 1009.1
20260507155146 21 85 4.8 12.9 0.00 0.30 0.00 43 1009.2
20260507155045 21 83 4.8 12.9 0.00 0.30 0.00 43 1009.2
20260507154945 21 74 4.8 12.9 0.00 0.30 0.00 43 1009.1
20260507154844 21 70 4.8 12.9 0.00 0.30 0.00 44 1009.2
20260507154744 21 71 4.8 12.9 0.00 0.30 0.00 44 1009.1
20260507154645 21 65 4.8 12.9 0.00 0.30 0.00 44 1009.3
20260507154545 21 61 3.2 12.9 0.00 0.30 0.00 44 1009.2
20260507154444 21 57 3.2 12.9 0.00 0.30 0.00 43 1009.1
20260507154344 21 26 3.2 11.3 0.00 0.30 0.00 43 1009.1
20260507154244 21 22 1.6 11.3 0.00 0.30 0.00 44 1009.1
20260507154145 21 15 1.6 9.7 0.00 0.30 0.00 45 1009.1
20260507154045 21 12 1.6 9.7 0.00 0.30 0.00 44 1009.0
20260507153946 21 352 1.6 6.4 0.00 0.30 0.00 44 1009.1
20260507153845 21 316 1.6 6.4 0.00 0.30 0.00 45 1009.0
20260507153745 21 266 1.6 6.4 0.00 0.30 0.00 45 1009.1
20260507153646 21 237 1.6 9.7 0.00 0.30 0.00 44 1009.1
20260507153546 21 231 1.6 9.7 0.00 0.30 0.00 44 1009.1
20260507153446 21 235 1.6 9.7 0.00 0.30 0.00 43 1009.1
20260507153346 21 225 1.6 9.7 0.00 0.30 0.00 43 1009.2
20260507153245 21 218 1.6 9.7 0.00 0.30 0.00 43 1009.2
20260507153145 21 218 1.6 9.7 0.00 0.30 0.00 43 1009.1
20260507153045 21 221 3.2 9.7 0.00 0.30 0.00 43 1009.1
20260507152944 21 221 3.2 9.7 0.00 0.30 0.00 43 1009.2
20260507152844 21 217 3.2 9.7 0.00 0.30 0.00 42 1009.3
20260507152744 21 208 3.2 9.7 0.00 0.30 0.00 42 1009.3
20260507152645 21 207 3.2 11.3 0.00 0.30 0.00 43 1009.2
20260507152545 21 207 3.2 12.9 0.00 0.30 0.00 44 1009.2
20260507152445 21 208 4.8 14.5 0.00 0.30 0.00 43 1009.2
20260507152346 21 208 4.8 14.5 0.00 0.30 0.00 43 1009.2
20260507152244 21 208 4.8 14.5 0.00 0.30 0.00 44 1009.3
20260507152146 20 207 4.8 14.5 0.00 0.30 0.00 44 1009.3
20260507152045 20 206 4.8 14.5 0.00 0.30 0.00 44 1009.2
20260507151945 20 207 4.8 14.5 0.00 0.30 0.00 43 1009.2
20260507151845 20 212 6.4 14.5 0.00 0.30 0.00 43 1009.3
20260507151745 21 210 6.4 14.5 0.00 0.30 0.00 43 1009.2
20260507151646 21 210 6.4 14.5 0.00 0.30 0.00 42 1009.2
20260507151546 21 212 4.8 14.5 0.00 0.30 0.00 43 1009.3
20260507151445 21 207 4.8 12.9 0.00 0.30 0.00 43 1009.2
20260507151345 21 209 4.8 12.9 0.00 0.30 0.00 44 1009.2
20260507151245 21 209 6.4 12.9 0.00 0.30 0.00 44 1009.2
20260507151145 21 208 6.4 12.9 0.00 0.30 0.00 44 1009.2
20260507151045 21 203 6.4 14.5 0.00 0.30 0.00 44 1009.2
20260507150945 21 196 8.0 14.5 0.00 0.30 0.00 44 1009.3
20260507150844 21 189 8.0 14.5 0.00 0.30 0.00 44 1009.3
20260507150744 21 191 8.0 14.5 0.00 0.30 0.00 45 1009.3
20260507150646 20 192 8.0 14.5 0.00 0.30 0.00 45 1009.4
20260507150545 20 192 8.0 14.5 0.00 0.30 0.00 44 1009.3
20260507150445 20 192 6.4 14.5 0.00 0.30 0.00 45 1009.4
20260507150345 21 187 6.4 14.5 0.00 0.30 0.00 45 1009.3
20260507150245 20 182 6.4 14.5 0.00 0.30 0.00 45 1009.3
20260507150145 20 176 6.4 14.5 0.00 0.30 0.00 44 1009.3
20260507150045 21 172 4.8 12.9 0.00 0.30 0.00 44 1009.3
20260507145944 21 168 4.8 12.9 0.00 0.30 0.00 44 1009.3
20260507145844 21 164 4.8 12.9 0.00 0.30 0.00 44 1009.3
20260507145744 21 158 3.2 12.9 0.00 0.30 0.00 44 1009.3
20260507145645 21 146 3.2 12.9 0.00 0.30 0.00 45 1009.3
20260507145545 21 131 3.2 12.9 0.00 0.30 0.00 46 1009.4
20260507145445 21 126 3.2 12.9 0.00 0.30 0.00 45 1009.4
20260507145346 21 125 3.2 12.9 0.00 0.30 0.00 45 1009.4
20260507145245 21 132 3.2 12.9 0.00 0.30 0.00 44 1009.4
20260507145145 21 140 3.2 11.3 0.00 0.30 0.00 45 1009.4
20260507145045 21 142 3.2 6.4 0.00 0.30 0.00 46 1009.3
20260507144945 21 148 3.2 6.4 0.00 0.30 0.00 46 1009.3
20260507144844 21 150 3.2 6.4 0.00 0.30 0.00 45 1009.4
20260507144746 21 157 3.2 6.4 0.00 0.30 0.00 46 1009.4
20260507144646 21 171 3.2 6.4 0.00 0.30 0.00 45 1009.3
20260507144546 21 181 3.2 6.4 0.00 0.30 0.00 46 1009.4
20260507144445 21 182 3.2 6.4 0.00 0.30 0.00 46 1009.4
20260507144346 21 183 3.2 6.4 0.00 0.30 0.00 46 1009.4
20260507144246 21 192 1.6 6.4 0.00 0.30 0.00 46 1009.4
20260507144145 21 175 1.6 6.4 0.00 0.30 0.00 47 1009.4
20260507144045 21 167 1.6 6.4 0.00 0.30 0.00 47 1009.4
20260507143945 21 167 1.6 6.4 0.00 0.30 0.00 47 1009.3
20260507143846 21 175 1.6 6.4 0.00 0.30 0.00 47 1009.5
20260507143746 20 165 1.6 6.4 0.00 0.30 0.00 47 1009.4
20260507143646 20 132 1.6 6.4 0.00 0.30 0.00 48 1009.4
20260507143545 20 122 1.6 6.4 0.00 0.30 0.00 46 1009.4
20260507143445 21 126 1.6 6.4 0.00 0.30 0.00 47 1009.4
20260507143346 21 155 0.0 6.4 0.00 0.30 0.00 47 1009.4
20260507143245 21 158 0.0 6.4 0.00 0.30 0.00 47 1009.4
20260507143145 21 182 0.0 6.4 0.00 0.30 0.00 46 1009.4
20260507143045 21 198 0.0 1.6 0.00 0.30 0.00 46 1009.3
20260507142944 21 182 0.0 1.6 0.00 0.30 0.00 47 1009.5
20260507142844 21 170 0.0 4.8 0.00 0.30 0.00 46 1009.3
20260507142744 21 167 1.6 6.4 0.00 0.30 0.00 46 1009.5
20260507142646 21 181 1.6 11.3 0.00 0.30 0.00 46 1009.5
20260507142546 21 191 1.6 11.3 0.00 0.30 0.00 47 1009.4
20260507142446 21 193 3.2 11.3 0.00 0.30 0.00 47 1009.4
20260507142345 21 188 3.2 11.3 0.00 0.30 0.00 47 1009.5
20260507142244 20 188 3.2 11.3 0.00 0.30 0.00 47 1009.5
20260507142146 20 185 3.2 11.3 0.00 0.30 0.00 48 1009.5
20260507142045 20 182 3.2 11.3 0.00 0.30 0.00 47 1009.5
20260507141945 20 176 3.2 11.3 0.00 0.30 0.00 47 1009.5
20260507141844 20 168 3.2 11.3 0.00 0.30 0.00 46 1009.5
20260507141746 20 156 3.2 11.3 0.00 0.30 0.00 46 1009.5
20260507141645 21 144 3.2 11.3 0.00 0.30 0.00 46 1009.6
20260507141545 21 117 1.6 9.7 0.00 0.30 0.00 47 1009.6
20260507141445 21 107 1.6 4.8 0.00 0.30 0.00 46 1009.6
20260507141344 21 102 1.6 6.4 0.00 0.30 0.00 47 1009.7
20260507141244 20 94 1.6 6.4 0.00 0.30 0.00 46 1009.5
20260507141146 20 78 1.6 6.4 0.00 0.30 0.00 46 1009.6
20260507141046 20 73 3.2 6.4 0.00 0.30 0.00 45 1009.5
20260507140946 21 75 3.2 9.7 0.00 0.30 0.00 45 1009.6
20260507140845 21 75 3.2 9.7 0.00 0.30 0.00 45 1009.6
20260507140745 21 76 3.2 9.7 0.00 0.30 0.00 46 1009.6
20260507140646 21 74 3.2 9.7 0.00 0.30 0.00 47 1009.7
20260507140546 21 72 3.2 9.7 0.00 0.30 0.00 47 1009.6
20260507140446 21 70 3.2 9.7 0.00 0.30 0.00 47 1009.7
20260507140345 21 68 3.2 9.7 0.00 0.30 0.00 48 1009.7
20260507140244 21 71 3.2 9.7 0.00 0.30 0.00 47 1009.7
20260507140144 21 71 3.2 9.7 0.00 0.30 0.00 47 1009.6
20260507140044 21 69 1.6 9.7 0.00 0.30 0.00 48 1009.6
20260507135946 21 65 1.6 6.4 0.00 0.30 0.00 48 1009.7
20260507135845 20 59 1.6 6.4 0.00 0.30 0.00 48 1009.8
20260507135745 20 51 1.6 6.4 0.00 0.30 0.00 48 1009.8
20260507135645 20 42 1.6 6.4 0.00 0.30 0.00 49 1009.8
20260507135545 20 34 1.6 6.4 0.00 0.30 0.00 48 1009.8
20260507135445 20 20 1.6 6.4 0.00 0.30 0.00 49 1009.8
20260507135344 20 18 1.6 6.4 0.00 0.30 0.00 48 1009.8
20260507135245 20 26 1.6 6.4 0.00 0.30 0.00 48 1009.8
20260507135144 20 24 1.6 6.4 0.00 0.30 0.00 49 1009.8
20260507135046 20 23 1.6 6.4 0.00 0.30 0.00 48 1009.9
20260507134946 20 20 1.6 4.8 0.00 0.30 0.00 48 1009.9
20260507134845 20 20 1.6 4.8 0.00 0.30 0.00 48 1009.9
20260507134745 20 27 3.2 6.4 0.00 0.30 0.00 48 1009.9
20260507134644 20 29 3.2 9.7 0.00 0.30 0.00 48 1009.9
20260507134544 20 30 3.2 9.7 0.00 0.30 0.00 49 1009.9
20260507134446 20 31 3.2 9.7 0.00 0.30 0.00 49 1009.9
20260507134346 20 43 3.2 12.9 0.00 0.30 0.00 49 1009.9
20260507134245 20 50 3.2 12.9 0.00 0.30 0.00 49 1009.9
20260507134145 20 56 4.8 12.9 0.00 0.30 0.00 49 1010.0
20260507134045 20 58 4.8 12.9 0.00 0.30 0.00 49 1009.9
20260507133945 20 60 4.8 12.9 0.00 0.30 0.00 49 1010.0
20260507133844 20 64 4.8 12.9 0.00 0.30 0.00 48 1010.0
20260507133744 20 65 4.8 12.9 0.00 0.30 0.00 49 1010.0
20260507133644 20 71 4.8 12.9 0.00 0.30 0.00 49 1010.0
20260507133546 20 75 4.8 12.9 0.00 0.30 0.00 50 1010.0
20260507133446 20 77 4.8 12.9 0.00 0.30 0.00 49 1010.0
20260507133346 20 75 4.8 12.9 0.00 0.30 0.00 49 1010.0
20260507133245 20 67 3.2 12.9 0.00 0.30 0.00 48 1010.1
20260507133145 20 60 3.2 9.7 0.00 0.30 0.00 47 1010.1
20260507133045 20 64 3.2 12.9 0.00 0.30 0.00 48 1010.1
20260507132945 20 68 4.8 14.5 0.00 0.30 0.00 49 1010.1
20260507132846 20 65 4.8 14.5 0.00 0.30 0.00 49 1010.1
20260507132746 20 70 4.8 14.5 0.00 0.30 0.00 49 1010.1
20260507132645 20 70 4.8 14.5 0.00 0.30 0.00 48 1010.2
20260507132545 20 69 4.8 14.5 0.00 0.30 0.00 50 1010.3
20260507132445 20 70 4.8 14.5 0.00 0.30 0.00 50 1010.2
20260507132346 20 71 4.8 14.5 0.00 0.30 0.00 50 1010.3
20260507132245 20 73 4.8 14.5 0.00 0.30 0.00 50 1010.3
20260507132145 20 79 4.8 14.5 0.00 0.30 0.00 49 1010.2
20260507132045 20 79 4.8 14.5 0.00 0.30 0.00 49 1010.2
20260507131945 20 76 3.2 12.9 0.00 0.30 0.00 48 1010.2
20260507131845 20 75 3.2 12.9 0.00 0.30 0.00 49 1010.2
20260507131744 20 79 3.2 12.9 0.00 0.30 0.00 49 1010.2
20260507131645 20 77 3.2 12.9 0.00 0.30 0.00 48 1010.3
20260507131545 20 76 3.2 11.3 0.00 0.30 0.00 49 1010.2
20260507131445 20 82 3.2 11.3 0.00 0.30 0.00 50 1010.2
20260507131344 20 89 3.2 11.3 0.00 0.30 0.00 50 1010.2
20260507131244 20 99 3.2 11.3 0.00 0.30 0.00 51 1010.3
20260507131146 20 112 3.2 11.3 0.00 0.30 0.00 51 1010.3
20260507131046 20 130 4.8 12.9 0.00 0.30 0.00 51 1010.4
20260507130946 20 140 4.8 12.9 0.00 0.30 0.00 51 1010.4
20260507130845 20 150 4.8 12.9 0.00 0.30 0.00 51 1010.3
20260507130745 20 156 4.8 12.9 0.00 0.30 0.00 51 1010.3
20260507130646 19 158 4.8 12.9 0.00 0.30 0.00 51 1010.3
20260507130546 19 164 4.8 12.9 0.00 0.30 0.00 50 1010.4
20260507130446 19 170 6.4 14.5 0.00 0.30 0.00 50 1010.4
20260507130345 19 173 6.4 14.5 0.00 0.30 0.00 51 1010.3
20260507130245 19 181 6.4 14.5 0.00 0.30 0.00 50 1010.3
20260507130145 19 184 6.4 14.5 0.00 0.30 0.00 50 1010.3
20260507130045 20 187 6.4 14.5 0.00 0.30 0.00 50 1010.3
20260507125945 20 189 6.4 14.5 0.00 0.30 0.00 50 1010.4
20260507125845 19 194 4.8 14.5 0.00 0.30 0.00 50 1010.4
20260507125745 19 198 6.4 14.5 0.00 0.30 0.00 50 1010.3
20260507125646 19 204 6.4 14.5 0.00 0.30 0.00 50 1010.4
20260507125546 20 210 4.8 14.5 0.00 0.30 0.00 50 1010.4
20260507125446 20 209 4.8 14.5 0.00 0.30 0.00 49 1010.3
20260507125345 20 206 4.8 14.5 0.00 0.30 0.00 49 1010.4
20260507125245 20 202 3.2 14.5 0.00 0.30 0.00 49 1010.3
20260507125144 20 189 3.2 12.9 0.00 0.30 0.00 50 1010.4
20260507125044 20 181 3.2 12.9 0.00 0.30 0.00 49 1010.4
20260507124946 20 174 3.2 12.9 0.00 0.30 0.00 49 1010.4
20260507124846 20 168 3.2 12.9 0.00 0.30 0.00 49 1010.4
20260507124746 20 167 4.8 14.5 0.00 0.30 0.00 48 1010.3
20260507124644 20 167 4.8 14.5 0.00 0.30 0.00 50 1010.4
20260507124544 20 167 4.8 14.5 0.00 0.30 0.00 49 1010.4
20260507124446 20 169 4.8 14.5 0.00 0.30 0.00 50 1010.4
20260507124345 20 168 4.8 14.5 0.00 0.30 0.00 50 1010.3
20260507124244 20 168 4.8 14.5 0.00 0.30 0.00 49 1010.3
20260507124146 20 173 4.8 14.5 0.00 0.30 0.00 52 1010.4
20260507124046 20 172 4.8 14.5 0.00 0.30 0.00 51 1010.5
20260507123946 19 170 4.8 14.5 0.00 0.30 0.00 51 1010.4
20260507123845 19 164 4.8 14.5 0.00 0.30 0.00 51 1010.4
20260507123745 20 152 4.8 14.5 0.00 0.30 0.00 52 1010.4
20260507123644 20 129 3.2 11.3 0.00 0.30 0.00 53 1010.4
20260507123545 20 105 3.2 12.9 0.00 0.30 0.00 53 1010.4
20260507123445 20 98 3.2 12.9 0.00 0.30 0.00 52 1010.4
20260507123345 20 96 4.8 14.5 0.00 0.30 0.00 53 1010.4
20260507123244 20 94 4.8 16.1 0.00 0.30 0.00 53 1010.4
20260507123146 19 95 4.8 16.1 0.00 0.30 0.00 53 1010.5
20260507123045 19 92 6.4 16.1 0.00 0.30 0.00 54 1010.4
20260507122945 19 90 6.4 16.1 0.00 0.30 0.00 54 1010.4
20260507122844 19 89 6.4 16.1 0.00 0.30 0.00 54 1010.4
20260507122744 19 90 6.4 16.1 0.00 0.30 0.00 55 1010.4
20260507122646 19 90 6.4 16.1 0.00 0.30 0.00 55 1010.3
20260507122546 18 90 6.4 16.1 0.00 0.30 0.00 55 1010.3
20260507122446 18 86 6.4 16.1 0.00 0.30 0.00 54 1010.3
20260507122345 19 86 6.4 16.1 0.00 0.30 0.00 55 1010.2
20260507122244 19 87 4.8 16.1 0.00 0.30 0.00 55 1010.4
20260507122146 19 80 4.8 16.1 0.00 0.30 0.00 55 1010.4
20260507122046 19 75 4.8 16.1 0.00 0.30 0.00 55 1010.4
20260507121946 19 74 6.4 16.1 0.00 0.30 0.00 55 1010.4
20260507121845 19 78 6.4 16.1 0.00 0.30 0.00 56 1010.3
20260507121745 18 78 6.4 16.1 0.00 0.30 0.00 56 1010.5
20260507121644 19 81 8.0 16.1 0.00 0.30 0.00 55 1010.5
20260507121544 18 80 8.0 16.1 0.00 0.30 0.00 57 1010.5
20260507121446 18 81 8.0 16.1 0.00 0.30 0.00 57 1010.6
20260507121345 18 83 8.0 16.1 0.00 0.30 0.00 58 1010.6
20260507121245 18 83 9.7 16.1 0.00 0.30 0.00 57 1010.6
20260507121145 18 86 9.7 16.1 0.00 0.30 0.00 57 1010.6
20260507121045 18 87 9.7 16.1 0.00 0.30 0.00 56 1010.7
20260507120945 18 88 9.7 16.1 0.00 0.30 0.00 56 1010.8
20260507120846 18 87 8.0 16.1 0.00 0.30 0.00 56 1010.7
20260507120745 18 87 8.0 16.1 0.00 0.30 0.00 57 1010.7
20260507120644 18 87 8.0 16.1 0.00 0.30 0.00 57 1010.7
20260507120546 18 88 6.4 16.1 0.00 0.30 0.00 56 1010.8
20260507120446 18 90 6.4 16.1 0.00 0.30 0.00 56 1010.7
20260507120346 18 88 4.8 16.1 0.00 0.30 0.00 56 1010.7
20260507120245 18 85 4.8 16.1 0.00 0.30 0.00 56 1010.6
20260507120145 18 81 4.8 14.5 0.00 0.30 0.00 56 1010.7
20260507120044 18 81 4.8 14.5 0.00 0.30 0.00 56 1010.7
20260507115946 18 81 4.8 16.1 0.00 0.30 0.00 58 1010.8
20260507115845 18 79 6.4 16.1 0.00 0.30 0.00 57 1010.7
20260507115745 18 79 6.4 16.1 0.00 0.30 0.00 57 1010.8
20260507115645 18 79 6.4 16.1 0.00 0.30 0.00 57 1010.8
20260507115545 18 79 6.4 16.1 0.00 0.30 0.00 58 1010.8
20260507115445 18 80 6.4 16.1 0.00 0.30 0.00 57 1010.8
20260507115344 18 82 6.4 16.1 0.00 0.30 0.00 57 1010.9
20260507115245 18 85 6.4 16.1 0.00 0.30 0.00 56 1010.7
20260507115145 18 87 6.4 16.1 0.00 0.30 0.00 56 1010.7
20260507115046 18 90 4.8 16.1 0.00 0.30 0.00 56 1010.7
20260507114946 18 97 4.8 12.9 0.00 0.30 0.00 56 1010.8
20260507114846 18 98 4.8 12.9 0.00 0.30 0.00 56 1010.8
20260507114745 18 99 4.8 12.9 0.00 0.30 0.00 56 1010.8
20260507114645 18 102 4.8 12.9 0.00 0.30 0.00 55 1010.8
20260507114545 18 109 4.8 12.9 0.00 0.30 0.00 54 1010.8
20260507114445 19 110 3.2 11.3 0.00 0.30 0.00 54 1010.7
20260507114345 19 114 3.2 9.7 0.00 0.30 0.00 55 1010.7
20260507114245 19 114 3.2 9.7 0.00 0.30 0.00 55 1010.8
20260507114144 19 111 3.2 12.9 0.00 0.30 0.00 55 1010.7
20260507114044 19 108 3.2 12.9 0.00 0.30 0.00 55 1010.8
20260507113946 19 102 4.8 12.9 0.00 0.30 0.00 55 1010.8
20260507113846 19 106 4.8 12.9 0.00 0.30 0.00 55 1010.9
20260507113746 19 103 4.8 12.9 0.00 0.30 0.00 55 1010.8
20260507113645 19 99 4.8 12.9 0.00 0.30 0.00 56 1010.9
20260507113545 19 93 4.8 12.9 0.00 0.30 0.00 56 1011.0
20260507113445 18 89 4.8 12.9 0.00 0.30 0.00 57 1010.9
20260507113344 18 80 4.8 12.9 0.00 0.30 0.00 56 1010.8
20260507113245 18 71 4.8 12.9 0.00 0.30 0.00 56 1011.0
20260507113144 18 61 4.8 12.9 0.00 0.30 0.00 57 1011.0
20260507113044 18 57 4.8 12.9 0.00 0.30 0.00 56 1011.1
20260507112946 18 53 4.8 12.9 0.00 0.30 0.00 56 1011.1
20260507112845 18 51 4.8 14.5 0.00 0.30 0.00 57 1011.0
20260507112745 18 52 4.8 14.5 0.00 0.30 0.00 57 1011.0
20260507112646 18 52 6.4 14.5 0.00 0.30 0.00 58 1011.0
20260507112545 17 56 6.4 14.5 0.00 0.30 0.00 57 1011.1
20260507112445 17 59 6.4 14.5 0.00 0.30 0.00 57 1011.0
20260507112344 18 64 8.0 14.5 0.00 0.30 0.00 57 1011.0
20260507112246 18 69 8.0 16.1 0.00 0.30 0.00 58 1011.2
20260507112145 17 72 8.0 16.1 0.00 0.30 0.00 59 1011.1
20260507112045 17 75 8.0 16.1 0.00 0.30 0.00 59 1011.1
20260507111945 17 77 8.0 16.1 0.00 0.30 0.00 58 1011.2
20260507111845 17 74 8.0 16.1 0.00 0.30 0.00 58 1011.1
20260507111744 17 79 8.0 16.1 0.00 0.30 0.00 59 1011.2
20260507111645 17 78 8.0 16.1 0.00 0.30 0.00 57 1011.2
20260507111545 17 78 8.0 16.1 0.00 0.30 0.00 56 1011.2
20260507111445 17 81 8.0 16.1 0.00 0.30 0.00 57 1011.2
20260507111345 17 82 8.0 17.7 0.00 0.30 0.00 57 1011.2
20260507111245 17 82 8.0 17.7 0.00 0.30 0.00 58 1011.2
20260507111145 17 83 9.7 17.7 0.00 0.30 0.00 57 1011.2
20260507111045 17 84 9.7 17.7 0.00 0.30 0.00 58 1011.2
20260507110945 17 84 9.7 17.7 0.00 0.30 0.00 58 1011.3
20260507110844 17 87 9.7 17.7 0.00 0.30 0.00 59 1011.3
20260507110744 17 86 9.7 17.7 0.00 0.30 0.00 59 1011.3
20260507110646 17 90 9.7 17.7 0.00 0.30 0.00 59 1011.2
20260507110545 17 90 9.7 17.7 0.00 0.30 0.00 58 1011.3
20260507110445 17 90 9.7 17.7 0.00 0.30 0.00 58 1011.3
20260507110345 17 91 8.0 17.7 0.00 0.30 0.00 57 1011.3
20260507110245 17 91 8.0 16.1 0.00 0.30 0.00 57 1011.3
20260507110145 17 91 8.0 16.1 0.00 0.30 0.00 57 1011.3
20260507110045 17 90 6.4 16.1 0.00 0.30 0.00 57 1011.4
20260507105945 17 92 8.0 16.1 0.00 0.30 0.00 58 1011.4
20260507105845 17 90 6.4 16.1 0.00 0.30 0.00 58 1011.4
20260507105744 17 93 8.0 16.1 0.00 0.30 0.00 58 1011.4
20260507105646 17 90 8.0 17.7 0.00 0.30 0.00 59 1011.4
20260507105546 17 88 9.7 17.7 0.00 0.30 0.00 59 1011.4
20260507105446 17 89 9.7 17.7 0.00 0.30 0.00 59 1011.5
20260507105345 17 90 9.7 17.7 0.00 0.30 0.00 58 1011.4
20260507105244 17 92 9.7 17.7 0.00 0.30 0.00 59 1011.5
20260507105146 17 92 9.7 17.7 0.00 0.30 0.00 59 1011.5
20260507105045 17 90 9.7 17.7 0.00 0.30 0.00 60 1011.4
20260507104945 17 86 9.7 17.7 0.00 0.30 0.00 60 1011.5
20260507104845 17 85 9.7 17.7 0.00 0.30 0.00 60 1011.5
20260507104744 17 82 9.7 17.7 0.00 0.30 0.00 59 1011.5
20260507104645 17 83 9.7 16.1 0.00 0.30 0.00 59 1011.5
20260507104545 17 86 8.0 16.1 0.00 0.30 0.00 59 1011.5
20260507104445 17 85 8.0 16.1 0.00 0.30 0.00 59 1011.5
20260507104345 17 82 8.0 16.1 0.00 0.30 0.00 60 1011.4
20260507104245 17 81 8.0 16.1 0.00 0.30 0.00 59 1011.4
20260507104144 17 82 9.7 16.1 0.00 0.30 0.00 58 1011.5
20260507104044 17 84 8.0 16.1 0.00 0.30 0.00 59 1011.4
20260507103944 17 86 8.0 16.1 0.00 0.30 0.00 59 1011.4
20260507103846 17 89 8.0 16.1 0.00 0.30 0.00 59 1011.5
20260507103746 17 90 8.0 16.1 0.00 0.30 0.00 59 1011.5
20260507103644 17 90 9.7 16.1 0.00 0.30 0.00 58 1011.5
20260507103546 17 87 8.0 16.1 0.00 0.30 0.00 58 1011.6
20260507103446 17 87 8.0 16.1 0.00 0.30 0.00 58 1011.5
20260507103346 17 86 8.0 16.1 0.00 0.30 0.00 57 1011.5
20260507103245 17 83 6.4 16.1 0.00 0.30 0.00 57 1011.4
20260507103144 17 80 6.4 16.1 0.00 0.30 0.00 58 1011.6
20260507103044 17 83 8.0 16.1 0.00 0.30 0.00 58 1011.6
20260507102944 17 83 8.0 16.1 0.00 0.30 0.00 57 1011.5
20260507102846 17 81 8.0 16.1 0.00 0.30 0.00 58 1011.5
20260507102746 17 78 8.0 16.1 0.00 0.30 0.00 58 1011.6
20260507102644 17 76 8.0 16.1 0.00 0.30 0.00 59 1011.7
20260507102544 17 77 8.0 16.1 0.00 0.30 0.00 60 1011.7
20260507102446 17 78 8.0 16.1 0.00 0.30 0.00 60 1011.7
20260507102345 17 81 8.0 16.1 0.00 0.30 0.00 60 1011.7
20260507102245 17 83 8.0 16.1 0.00 0.30 0.00 59 1011.7
20260507102144 17 84 9.7 16.1 0.00 0.30 0.00 59 1011.7
20260507102044 17 84 9.7 16.1 0.00 0.30 0.00 59 1011.7
20260507101944 17 84 9.7 16.1 0.00 0.30 0.00 58 1011.6
20260507101845 17 83 9.7 16.1 0.00 0.30 0.00 58 1011.6
20260507101745 17 85 9.7 16.1 0.00 0.30 0.00 59 1011.6
20260507101645 17 86 9.7 16.1 0.00 0.30 0.00 58 1011.6
20260507101544 17 88 9.7 16.1 0.00 0.30 0.00 58 1011.6
20260507101444 17 90 9.7 16.1 0.00 0.30 0.00 59 1011.6
20260507101346 17 90 9.7 16.1 0.00 0.30 0.00 59 1011.6
20260507101246 17 90 9.7 16.1 0.00 0.30 0.00 58 1011.7
20260507101146 17 90 9.7 16.1 0.00 0.30 0.00 58 1011.6
20260507101045 17 90 9.7 16.1 0.00 0.30 0.00 58 1011.6
20260507100945 17 92 8.0 16.1 0.00 0.30 0.00 58 1011.6
20260507100845 17 94 8.0 16.1 0.00 0.30 0.00 57 1011.6
20260507100745 17 96 6.4 14.5 0.00 0.30 0.00 58 1011.7
20260507100645 17 95 6.4 14.5 0.00 0.30 0.00 58 1011.7
20260507100545 17 94 6.4 14.5 0.00 0.30 0.00 58 1011.6
20260507100445 17 92 6.4 14.5 0.00 0.30 0.00 59 1011.6
20260507100345 17 89 6.4 14.5 0.00 0.30 0.00 59 1011.6
20260507100244 17 88 6.4 12.9 0.00 0.30 0.00 58 1011.7
20260507100146 17 86 6.4 12.9 0.00 0.30 0.00 59 1011.7
20260507100046 17 86 6.4 14.5 0.00 0.30 0.00 59 1011.8
20260507095945 17 84 6.4 14.5 0.00 0.30 0.00 59 1011.7
20260507095844 17 84 6.4 14.5 0.00 0.30 0.00 59 1011.7
20260507095744 17 85 6.4 14.5 0.00 0.30 0.00 59 1011.8
20260507095646 17 84 8.0 14.5 0.00 0.30 0.00 59 1011.8
20260507095546 16 82 8.0 14.5 0.00 0.30 0.00 60 1011.8
20260507095446 16 81 8.0 14.5 0.00 0.30 0.00 61 1011.7
20260507095345 16 81 8.0 14.5 0.00 0.30 0.00 60 1011.8
20260507095245 16 83 9.7 14.5 0.00 0.30 0.00 59 1011.9
20260507095144 16 85 9.7 14.5 0.00 0.30 0.00 60 1011.9
20260507095045 16 83 9.7 14.5 0.00 0.30 0.00 59 1011.9
20260507094945 16 82 9.7 14.5 0.00 0.30 0.00 60 1011.9
20260507094845 16 82 9.7 14.5 0.00 0.30 0.00 59 1011.8
20260507094745 16 80 9.7 14.5 0.00 0.30 0.00 58 1011.9
20260507094645 16 80 8.0 14.5 0.00 0.30 0.00 58 1011.9
20260507094545 16 81 9.7 14.5 0.00 0.30 0.00 58 1011.9
20260507094445 16 81 8.0 14.5 0.00 0.30 0.00 60 1011.8
20260507094345 16 81 8.0 14.5 0.00 0.30 0.00 59 1011.8
20260507094245 16 80 8.0 14.5 0.00 0.30 0.00 58 1011.8
20260507094144 16 76 6.4 14.5 0.00 0.30 0.00 59 1011.9
20260507094044 16 76 6.4 14.5 0.00 0.30 0.00 61 1011.9
20260507093944 16 78 6.4 14.5 0.00 0.30 0.00 60 1011.9
20260507093845 16 79 6.4 14.5 0.00 0.30 0.00 61 1011.8
20260507093745 16 75 4.8 14.5 0.00 0.30 0.00 60 1011.9
20260507093645 16 76 4.8 14.5 0.00 0.30 0.00 61 1011.8
20260507093545 16 77 4.8 12.9 0.00 0.30 0.00 61 1011.9
20260507093445 16 80 4.8 12.9 0.00 0.30 0.00 61 1011.8
20260507093344 16 84 4.8 12.9 0.00 0.30 0.00 61 1011.9
20260507093246 16 86 6.4 12.9 0.00 0.30 0.00 61 1011.9
20260507093145 16 90 6.4 12.9 0.00 0.30 0.00 61 1011.8
20260507093045 16 95 6.4 12.9 0.00 0.30 0.00 60 1011.8
20260507092945 16 96 6.4 12.9 0.00 0.30 0.00 60 1011.8
20260507092845 16 99 6.4 12.9 0.00 0.30 0.00 60 1011.7
20260507092745 16 100 6.4 12.9 0.00 0.30 0.00 60 1011.8
20260507092645 16 98 6.4 12.9 0.00 0.30 0.00 59 1011.7
20260507092545 16 102 6.4 12.9 0.00 0.30 0.00 59 1011.7
20260507092445 16 102 6.4 12.9 0.00 0.30 0.00 59 1011.7
20260507092344 16 103 6.4 12.9 0.00 0.30 0.00 60 1011.8
20260507092244 16 101 6.4 14.5 0.00 0.30 0.00 60 1011.8
20260507092146 16 99 6.4 14.5 0.00 0.30 0.00 60 1011.8
20260507092045 16 94 4.8 14.5 0.00 0.30 0.00 59 1011.8
20260507091945 16 89 4.8 14.5 0.00 0.30 0.00 62 1011.8
20260507091845 16 87 4.8 14.5 0.00 0.30 0.00 61 1011.8
20260507091745 16 91 4.8 14.5 0.00 0.30 0.00 61 1011.7
20260507091645 16 91 4.8 14.5 0.00 0.30 0.00 60 1011.8
20260507091545 16 90 4.8 14.5 0.00 0.30 0.00 62 1011.7
20260507091445 16 92 4.8 14.5 0.00 0.30 0.00 62 1011.7
20260507091345 16 96 3.2 14.5 0.00 0.30 0.00 61 1011.7
20260507091245 16 100 3.2 9.7 0.00 0.30 0.00 62 1011.7
20260507091144 16 105 3.2 9.7 0.00 0.30 0.00 62 1011.7
20260507091044 16 113 3.2 9.7 0.00 0.30 0.00 62 1011.7
20260507090944 16 113 3.2 9.7 0.00 0.30 0.00 62 1011.8
20260507090846 16 110 3.2 9.7 0.00 0.30 0.00 61 1011.7
20260507090746 16 104 1.6 6.4 0.00 0.30 0.00 61 1011.7
20260507090645 16 111 1.6 6.4 0.00 0.30 0.00 61 1011.8
20260507090544 16 104 3.2 11.3 0.00 0.30 0.00 63 1011.8
20260507090444 16 97 3.2 11.3 0.00 0.30 0.00 64 1011.7
20260507090344 16 90 3.2 11.3 0.00 0.30 0.00 65 1011.8
20260507090245 16 90 3.2 11.3 0.00 0.30 0.00 66 1011.7
20260507090145 16 90 3.2 11.3 0.00 0.30 0.00 66 1011.8
20260507090045 16 87 3.2 11.3 0.00 0.30 0.00 65 1011.8
20260507085944 16 88 3.2 11.3 0.00 0.30 0.00 66 1011.8
20260507085846 16 88 1.6 11.3 0.00 0.30 0.00 65 1011.8
20260507085746 16 87 1.6 11.3 0.00 0.30 0.00 65 1011.8
20260507085645 16 77 1.6 11.3 0.00 0.30 0.00 66 1011.9
20260507085545 16 68 1.6 11.3 0.00 0.30 0.00 67 1011.8
20260507085445 16 40 1.6 4.8 0.00 0.30 0.00 68 1011.8
20260507085345 16 35 0.0 3.2 0.00 0.30 0.00 68 1011.8
20260507085245 15 31 0.0 3.2 0.00 0.30 0.00 67 1011.8
20260507085145 16 28 0.0 3.2 0.00 0.30 0.00 66 1011.8
20260507085044 16 13 0.0 3.2 0.00 0.30 0.00 66 1011.8
20260507084944 16 350 0.0 4.8 0.00 0.30 0.00 66 1011.8
20260507084845 16 335 0.0 4.8 0.00 0.30 0.00 67 1011.8
20260507084745 16 331 1.6 4.8 0.00 0.30 0.00 67 1011.9
20260507084645 16 322 1.6 4.8 0.00 0.30 0.00 68 1011.9
20260507084545 15 326 1.6 4.8 0.00 0.30 0.00 68 1011.8
20260507084445 15 327 1.6 4.8 0.00 0.30 0.00 69 1011.8
20260507084345 15 328 1.6 4.8 0.00 0.30 0.00 70 1011.9
20260507084245 15 328 1.6 4.8 0.00 0.30 0.00 69 1011.9
20260507084146 15 332 1.6 4.8 0.00 0.30 0.00 69 1012.0
20260507084046 15 339 1.6 4.8 0.00 0.30 0.00 69 1011.8
20260507083945 15 345 1.6 4.8 0.00 0.30 0.00 69 1011.9
20260507083845 15 350 1.6 4.8 0.00 0.30 0.00 68 1011.8
20260507083745 15 353 1.6 6.4 0.00 0.30 0.00 69 1011.8
20260507083644 15 3 1.6 6.4 0.00 0.30 0.00 69 1011.8
20260507083544 15 6 3.2 6.4 0.00 0.30 0.00 69 1011.8
20260507083444 15 4 3.2 6.4 0.00 0.30 0.00 68 1011.8
20260507083346 15 3 3.2 6.4 0.00 0.30 0.00 68 1011.9
20260507083245 15 4 3.2 6.4 0.00 0.30 0.00 68 1011.8
20260507083145 15 2 3.2 6.4 0.00 0.30 0.00 68 1011.9
20260507083044 15 358 3.2 6.4 0.00 0.30 0.00 68 1011.8
20260507082944 15 359 3.2 6.4 0.00 0.30 0.00 69 1011.9
20260507082846 15 5 3.2 6.4 0.00 0.30 0.00 69 1011.9
20260507082746 15 9 3.2 6.4 0.00 0.30 0.00 68 1011.9
20260507082645 15 11 3.2 6.4 0.00 0.30 0.00 68 1011.9
20260507082545 15 13 3.2 6.4 0.00 0.30 0.00 69 1011.9
20260507082445 15 13 3.2 6.4 0.00 0.30 0.00 69 1011.9
20260507082344 15 13 3.2 6.4 0.00 0.30 0.00 69 1011.9
20260507082246 14 12 3.2 6.4 0.00 0.30 0.00 69 1011.9
20260507082145 14 13 3.2 9.7 0.00 0.30 0.00 69 1011.9
20260507082045 14 9 3.2 9.7 0.00 0.30 0.00 69 1011.9
20260507081945 14 3 3.2 9.7 0.00 0.30 0.00 69 1011.9
20260507081845 14 357 4.8 11.3 0.00 0.30 0.00 69 1011.9
20260507081744 14 353 4.8 11.3 0.00 0.30 0.00 68 1011.9
20260507081646 15 349 4.8 11.3 0.00 0.30 0.00 69 1011.9
20260507081546 14 347 4.8 11.3 0.00 0.30 0.00 69 1012.0
20260507081444 14 346 4.8 11.3 0.00 0.30 0.00 68 1012.0
20260507081346 14 346 4.8 11.3 0.00 0.30 0.00 68 1012.0
20260507081246 14 347 4.8 11.3 0.00 0.30 0.00 68 1012.0
20260507081145 14 347 4.8 11.3 0.00 0.30 0.00 68 1011.9
20260507081045 14 346 4.8 11.3 0.00 0.30 0.00 67 1011.9
20260507080945 14 346 4.8 12.9 0.00 0.30 0.00 69 1011.9
20260507080845 14 348 4.8 12.9 0.00 0.30 0.00 70 1011.9
20260507080745 14 348 4.8 12.9 0.00 0.30 0.00 70 1011.9
20260507080646 14 349 4.8 12.9 0.00 0.30 0.00 70 1011.9
20260507080545 14 349 4.8 12.9 0.00 0.30 0.00 70 1011.9
20260507080445 14 349 4.8 12.9 0.00 0.30 0.00 69 1012.0
20260507080345 14 349 4.8 12.9 0.00 0.30 0.00 70 1011.9
20260507080245 14 348 6.4 12.9 0.00 0.30 0.00 69 1012.0
20260507080144 14 346 4.8 12.9 0.00 0.30 0.00 70 1012.0
20260507080044 13 349 6.4 12.9 0.00 0.30 0.00 70 1012.0
20260507075944 13 352 6.4 12.9 0.00 0.30 0.00 69 1012.0
20260507075846 13 351 6.4 12.9 0.00 0.30 0.00 71 1011.9
20260507075746 13 352 6.4 12.9 0.00 0.30 0.00 70 1012.0
20260507075645 13 354 6.4 12.9 0.00 0.30 0.00 71 1012.1
20260507075545 13 356 6.4 12.9 0.00 0.30 0.00 71 1012.0
20260507075445 13 1 6.4 12.9 0.00 0.30 0.00 71 1012.1
20260507075345 13 2 6.4 12.9 0.00 0.30 0.00 72 1012.1
20260507075245 13 4 6.4 12.9 0.00 0.30 0.00 72 1012.1
20260507075145 13 5 6.4 12.9 0.00 0.30 0.00 73 1012.1
20260507075044 13 5 6.4 12.9 0.00 0.30 0.00 73 1012.1
20260507074944 13 6 6.4 11.3 0.00 0.30 0.00 73 1012.0
20260507074844 13 8 6.4 11.3 0.00 0.30 0.00 73 1012.0
20260507074746 13 10 6.4 11.3 0.00 0.30 0.00 74 1012.0
20260507074645 13 9 6.4 11.3 0.00 0.30 0.00 73 1012.1
20260507074545 13 10 6.4 11.3 0.00 0.30 0.00 73 1012.1
20260507074445 13 8 4.8 11.3 0.00 0.30 0.00 73 1012.1
20260507074345 13 8 4.8 11.3 0.00 0.30 0.00 73 1012.1
20260507074245 13 11 4.8 11.3 0.00 0.30 0.00 74 1012.0
20260507074145 13 16 4.8 9.7 0.00 0.30 0.00 74 1012.1
20260507074045 13 18 4.8 9.7 0.00 0.30 0.00 74 1012.1
20260507073945 13 18 4.8 9.7 0.00 0.30 0.00 75 1012.1
20260507073845 13 18 4.8 9.7 0.00 0.30 0.00 75 1012.0
20260507073745 13 20 4.8 9.7 0.00 0.30 0.00 75 1012.1
20260507073644 13 27 3.2 9.7 0.00 0.30 0.00 75 1012.1
20260507073544 13 24 3.2 6.4 0.00 0.30 0.00 76 1012.2
20260507073444 13 25 3.2 6.4 0.00 0.30 0.00 77 1012.2
20260507073344 12 24 3.2 6.4 0.00 0.30 0.00 76 1012.2
20260507073245 12 21 3.2 6.4 0.00 0.30 0.00 77 1012.2
20260507073145 12 16 3.2 9.7 0.00 0.30 0.00 78 1012.3
20260507073045 12 10 3.2 9.7 0.00 0.30 0.00 78 1012.3
20260507072944 12 11 3.2 9.7 0.00 3.66 0.00 77 1012.3
20260507072844 12 9 3.2 9.7 0.00 3.66 0.00 78 1012.3
20260507072745 12 3 4.8 9.7 0.00 3.66 0.00 77 1012.3
20260507072645 12 356 3.2 9.7 0.00 3.66 0.00 79 1012.3
20260507072545 12 355 3.2 9.7 0.00 3.66 0.00 79 1012.3
20260507072445 12 353 3.2 9.7 0.00 3.76 0.00 79 1012.3
20260507072345 12 353 3.2 9.7 0.00 3.76 0.00 79 1012.2
20260507072245 12 350 3.2 9.7 0.00 3.76 0.00 78 1012.3
20260507072145 12 350 3.2 11.3 0.00 3.76 0.00 78 1012.3
20260507072045 12 348 3.2 11.3 0.00 3.76 0.00 79 1012.1
20260507071945 12 343 3.2 11.3 0.00 3.76 0.00 79 1012.2
20260507071845 12 341 3.2 11.3 0.00 3.76 0.00 79 1012.2
20260507071745 12 341 3.2 11.3 0.00 3.76 0.00 80 1012.3
20260507071646 12 344 3.2 11.3 0.00 3.76 0.00 80 1012.3
20260507071545 12 345 4.8 11.3 0.00 3.76 0.00 80 1012.3
20260507071445 12 348 4.8 11.3 0.00 3.76 0.00 80 1012.4
20260507071345 12 349 4.8 11.3 0.00 3.76 0.00 80 1012.4
20260507071245 12 350 4.8 11.3 0.00 3.76 0.00 79 1012.4
20260507071144 12 349 6.4 12.9 0.00 3.76 0.00 80 1012.3
20260507071044 12 352 6.4 12.9 0.00 3.76 0.00 81 1012.3
20260507070944 12 356 6.4 12.9 0.00 3.76 0.00 81 1012.3
20260507070846 12 358 6.4 12.9 0.00 3.76 0.00 81 1012.4
20260507070746 11 359 6.4 12.9 0.00 3.76 0.00 81 1012.3
20260507070644 11 1 6.4 12.9 0.00 3.76 0.00 81 1012.3
20260507070544 11 1 6.4 12.9 0.00 3.76 0.00 82 1012.2
20260507070444 11 359 6.4 12.9 0.00 3.84 0.00 81 1012.3
20260507070346 11 359 4.8 12.9 0.00 3.84 0.00 82 1012.3
20260507070244 11 359 4.8 12.9 0.00 3.84 0.00 82 1012.3
20260507070146 11 2 4.8 11.3 0.00 3.84 0.00 82 1012.3
20260507070046 11 359 4.8 11.3 0.00 3.84 0.00 82 1012.3
20260507065945 11 358 4.8 11.3 0.00 3.84 0.00 82 1012.2
20260507065845 11 1 4.8 12.9 0.00 3.84 0.00 82 1012.2
20260507065745 11 359 4.8 14.5 0.00 3.84 0.00 82 1012.2
20260507065644 11 359 4.8 14.5 0.00 3.84 0.00 82 1012.2
20260507065544 11 357 4.8 14.5 0.00 3.84 0.00 82 1012.1
20260507065444 11 358 4.8 14.5 0.00 3.84 0.00 82 1012.1
20260507065344 11 356 4.8 14.5 0.00 3.84 0.00 82 1012.2
20260507065244 11 354 4.8 14.5 0.00 3.84 0.00 82 1012.2
20260507065146 11 354 6.4 14.5 0.00 3.84 0.00 82 1012.1
20260507065045 11 353 6.4 14.5 0.00 3.84 0.00 82 1012.1
20260507064945 11 350 6.4 14.5 0.00 3.84 0.00 82 1012.1
20260507064845 11 349 6.4 14.5 0.00 3.84 0.00 82 1012.1
20260507064744 11 349 6.4 14.5 0.00 3.84 0.00 83 1012.2
20260507064644 11 349 6.4 14.5 0.00 3.84 0.00 83 1012.2
20260507064544 11 353 6.4 14.5 0.00 3.84 0.00 83 1012.1
20260507064445 11 355 8.0 14.5 0.00 3.84 0.00 83 1012.1
20260507064345 11 356 8.0 14.5 0.00 3.84 0.00 83 1012.1
20260507064244 11 357 6.4 14.5 0.00 3.84 0.00 83 1012.2
20260507064145 11 358 6.4 14.5 0.00 3.84 0.00 83 1012.2
20260507064045 11 1 6.4 14.5 0.00 3.84 0.00 83 1012.2
20260507063945 11 3 6.4 14.5 0.00 3.84 0.00 83 1012.2
20260507063845 11 4 4.8 14.5 0.00 3.84 0.00 83 1012.2
20260507063745 11 5 4.8 14.5 0.00 3.84 0.00 83 1012.3
20260507063645 11 9 4.8 12.9 0.00 3.84 0.00 82 1012.2
20260507063544 11 8 4.8 12.9 0.00 3.84 0.00 84 1012.2
20260507063444 11 8 3.2 6.4 0.00 3.84 0.00 84 1012.2
20260507063344 11 9 3.2 6.4 0.00 3.84 0.00 84 1012.2
20260507063245 11 10 3.2 6.4 0.00 3.84 0.00 84 1012.1
20260507063145 11 7 4.8 6.4 0.00 3.84 0.00 84 1012.1
20260507063045 11 6 4.8 6.4 0.00 3.84 0.00 84 1012.1
20260507062944 11 7 3.2 6.4 0.00 2.95 0.00 85 1012.1
20260507062844 11 1 3.2 9.7 0.00 2.95 0.00 85 1012.1
20260507062744 11 3 3.2 9.7 0.00 2.95 0.00 85 1012.1
20260507062645 11 4 4.8 9.7 0.00 2.95 0.00 85 1012.1
20260507062545 11 8 4.8 9.7 0.00 2.95 0.00 85 1012.1
20260507062445 11 8 4.8 9.7 0.00 3.05 0.00 85 1012.1
20260507062345 11 6 4.8 9.7 0.00 3.05 0.00 86 1012.1
20260507062246 11 5 4.8 9.7 0.00 3.05 0.00 86 1012.1
20260507062145 11 8 4.8 9.7 0.00 3.05 0.00 87 1012.0
20260507062045 10 10 4.8 9.7 0.00 3.05 0.00 87 1012.1
20260507061945 10 10 4.8 9.7 0.00 3.05 0.00 87 1012.0
20260507061845 10 11 4.8 9.7 0.00 3.05 0.00 86 1012.1
20260507061745 10 8 4.8 9.7 0.00 3.05 0.00 86 1012.0
20260507061645 10 5 4.8 9.7 0.00 3.05 0.00 86 1012.0
20260507061545 10 1 4.8 9.7 0.00 3.05 0.00 87 1012.0
20260507061444 10 358 4.8 9.7 0.00 3.15 0.00 86 1012.0
20260507061344 10 355 3.2 9.7 0.00 3.15 0.00 86 1012.1
20260507061244 10 353 4.8 9.7 0.00 3.15 0.00 86 1012.1
20260507061145 10 352 4.8 9.7 0.00 3.15 0.00 87 1012.0
20260507061045 10 348 4.8 9.7 0.00 3.15 0.00 87 1011.9
20260507060945 10 348 4.8 9.7 0.00 3.25 0.00 87 1011.9
20260507060844 10 349 4.8 9.7 0.00 3.25 0.00 87 1012.0
20260507060744 10 350 3.2 9.7 0.00 3.25 0.00 87 1012.0
20260507060646 10 351 4.8 9.7 0.00 3.25 0.00 87 1012.0
20260507060545 10 353 4.8 9.7 0.00 3.25 0.00 87 1012.0
20260507060445 10 355 4.8 9.7 0.00 3.25 0.00 87 1012.0
20260507060345 10 357 3.2 9.7 0.00 3.25 0.00 87 1012.0
20260507060244 10 359 3.2 9.7 0.00 3.25 0.00 87 1012.0
20260507060144 10 359 3.2 6.4 0.00 3.25 0.00 87 1012.0
20260507060044 10 2 1.6 6.4 0.00 3.25 0.00 87 1012.0
20260507055945 10 4 1.6 6.4 0.00 3.35 0.00 88 1012.0
20260507055845 10 5 1.6 6.4 0.00 3.35 0.00 88 1012.0
20260507055745 10 6 1.6 4.8 0.00 3.35 0.00 87 1012.0
20260507055644 10 2 1.6 4.8 0.00 3.35 0.00 87 1012.0
20260507055544 10 2 1.6 4.8 0.00 3.35 0.00 88 1012.0
20260507055444 10 5 1.6 4.8 0.00 3.45 0.00 89 1012.0
20260507055346 10 7 1.6 4.8 0.00 3.45 0.00 89 1012.0
20260507055245 10 8 1.6 4.8 0.00 3.45 0.00 89 1012.0
20260507055145 10 8 1.6 4.8 0.00 3.45 0.00 89 1012.0
20260507055045 10 7 1.6 4.8 0.00 3.45 0.00 89 1012.0
20260507054945 10 5 1.6 4.8 0.00 3.56 0.00 89 1012.0
20260507054845 10 5 1.6 4.8 0.00 3.56 0.00 88 1012.0
20260507054745 10 7 1.6 4.8 0.00 3.56 0.00 89 1012.1
20260507054644 10 13 1.6 4.8 0.00 3.56 0.00 89 1012.1
20260507054544 10 11 1.6 9.7 0.00 3.56 0.00 88 1012.0
20260507054446 10 4 1.6 9.7 0.00 3.56 0.00 88 1011.9
20260507054346 10 1 1.6 9.7 0.00 3.56 0.00 88 1011.9
20260507054245 10 1 1.6 9.7 0.00 3.56 0.00 88 1011.8
20260507054144 10 1 1.6 9.7 0.00 3.56 0.00 89 1011.9
20260507054044 10 359 1.6 9.7 0.00 3.56 0.00 89 1011.9
20260507053944 10 358 1.6 9.7 0.00 3.56 0.00 89 1011.9
20260507053845 10 358 1.6 9.7 0.00 3.56 0.00 89 1011.9
20260507053745 10 357 1.6 9.7 0.00 3.56 0.00 89 1011.9
20260507053645 10 356 1.6 9.7 0.00 3.56 0.00 89 1011.9
20260507053544 10 356 1.6 6.4 0.00 3.56 0.00 89 1012.0
20260507053444 10 355 1.6 4.8 0.00 3.56 0.00 90 1011.9
20260507053344 10 353 1.6 4.8 0.00 3.56 0.00 90 1011.8
20260507053245 10 355 1.6 4.8 0.00 3.56 0.00 90 1011.9
20260507053144 10 353 1.6 4.8 0.00 3.56 0.00 90 1011.9
20260507053044 10 353 1.6 4.8 0.00 3.56 0.00 90 1011.9
20260507052946 10 351 1.6 4.8 0.00 3.56 0.00 90 1011.9
20260507052845 10 348 1.6 4.8 0.00 3.56 0.00 90 1011.9
20260507052745 10 346 1.6 4.8 0.00 3.56 0.00 90 1011.9
20260507052644 10 345 1.6 4.8 0.00 3.56 0.00 90 1011.9
20260507052544 10 343 1.6 4.8 0.00 3.56 0.00 90 1012.0
20260507052444 10 341 1.6 4.8 0.00 3.56 0.00 90 1012.0
20260507052345 10 341 1.6 4.8 0.00 3.56 0.00 90 1012.0
20260507052246 10 329 1.6 4.8 0.00 3.56 0.00 90 1012.0
20260507052145 10 321 0.0 3.2 0.00 3.56 0.00 90 1012.0
20260507052045 10 322 1.6 3.2 0.00 3.56 0.00 90 1012.1
20260507051945 10 323 1.6 3.2 0.00 3.66 0.00 90 1012.0
20260507051846 10 324 1.6 3.2 0.00 3.66 0.00 90 1012.0
20260507051745 10 325 1.6 3.2 0.00 3.66 0.00 90 1012.0
20260507051645 10 325 1.6 3.2 0.00 3.66 0.00 91 1012.0
20260507051545 10 327 1.6 3.2 0.00 3.66 0.00 91 1011.9
20260507051444 10 330 1.6 3.2 0.00 3.66 0.00 90 1011.9
20260507051344 10 333 1.6 3.2 0.00 3.66 0.00 91 1012.0
20260507051246 10 339 1.6 3.2 0.00 3.66 0.00 90 1011.8
20260507051145 10 350 0.0 3.2 0.00 3.66 0.00 91 1011.8
20260507051045 10 2 0.0 3.2 0.00 3.66 0.00 90 1011.8
20260507050945 10 15 0.0 1.6 0.00 3.76 0.00 91 1011.8
20260507050845 10 29 0.0 3.2 0.00 3.76 0.00 91 1011.8
20260507050744 10 30 0.0 3.2 0.00 3.76 0.00 91 1011.8
20260507050646 10 29 0.0 3.2 0.00 3.76 0.00 91 1011.9
20260507050545 10 28 0.0 3.2 0.00 3.76 0.00 91 1011.8
20260507050445 10 25 0.0 3.2 0.00 3.76 0.00 91 1011.8
20260507050345 10 25 0.0 3.2 0.00 3.76 0.00 91 1011.8
20260507050245 10 26 0.0 3.2 0.00 3.76 0.00 91 1011.8
20260507050144 10 23 0.0 3.2 0.00 3.76 0.00 91 1011.7
20260507050044 10 11 0.0 3.2 0.00 3.76 0.00 91 1011.8
20260507045946 10 8 0.0 3.2 0.00 3.76 0.00 91 1011.8
20260507045845 10 328 0.0 1.6 0.00 3.76 0.00 91 1011.8
20260507045745 10 312 0.0 0.0 0.00 3.76 0.00 91 1011.8
20260507045644 10 329 0.0 1.6 0.00 3.76 0.00 92 1011.7
20260507045544 10 336 0.0 1.6 0.00 3.76 0.00 92 1011.7
20260507045444 10 342 0.0 1.6 0.00 3.76 0.00 92 1011.7
20260507045345 10 343 0.0 1.6 0.00 3.76 0.00 92 1011.8
20260507045244 10 345 0.0 1.6 0.00 3.76 0.00 92 1011.8
20260507045144 10 347 0.0 1.6 0.00 3.76 0.00 92 1011.6
20260507045045 9 352 0.0 1.6 0.00 3.76 0.00 92 1011.7
20260507044946 9 353 0.0 1.6 0.00 3.76 0.00 92 1011.7
20260507044845 9 357 0.0 1.6 0.00 3.76 0.00 92 1011.6
20260507044745 9 357 0.0 1.6 0.00 3.76 0.00 92 1011.7
20260507044646 9 357 0.0 1.6 0.00 3.76 0.00 92 1011.6
20260507044546 9 6 0.0 3.2 0.00 3.76 0.00 92 1011.6
20260507044445 9 10 0.0 3.2 0.00 3.84 0.00 92 1011.7
20260507044345 9 10 0.0 3.2 0.00 3.84 0.00 92 1011.6
20260507044244 9 9 1.6 3.2 0.00 3.84 0.00 92 1011.5
20260507044145 9 9 1.6 3.2 0.00 3.84 0.00 92 1011.5
20260507044045 9 15 1.6 3.2 0.00 3.84 0.00 92 1011.4
20260507043945 9 15 1.6 3.2 0.00 3.84 0.00 92 1011.4
20260507043845 9 16 1.6 3.2 0.00 3.84 0.00 92 1011.5
20260507043745 9 17 1.6 3.2 0.00 3.84 0.00 92 1011.4
20260507043644 9 19 1.6 3.2 0.00 3.84 0.00 92 1011.5
20260507043544 9 17 1.6 3.2 0.00 3.84 0.00 92 1011.4
20260507043446 9 15 1.6 3.2 0.00 3.84 0.00 92 1011.3
20260507043346 9 16 1.6 3.2 0.00 3.84 0.00 92 1011.3
20260507043245 9 18 1.6 3.2 0.00 3.84 0.00 92 1011.2
20260507043144 9 18 0.0 3.2 0.00 3.84 0.00 92 1011.2
20260507043044 9 11 0.0 3.2 0.00 3.84 0.00 92 1011.2
20260507042944 9 11 0.0 3.2 0.00 3.84 0.00 92 1011.1
20260507042845 9 9 0.0 1.6 0.00 3.84 0.00 92 1011.1
20260507042745 9 6 0.0 1.6 0.00 3.84 0.00 92 1011.2
20260507042644 9 1 0.0 1.6 0.00 3.84 0.00 92 1011.2
20260507042544 9 355 0.0 1.6 0.00 3.84 0.00 92 1011.0
20260507042444 9 353 0.0 0.0 0.00 3.84 0.00 92 1011.1
20260507042346 9 353 0.0 0.0 0.00 3.84 0.00 92 1011.1
20260507042245 9 353 0.0 0.0 0.00 3.84 0.00 92 1011.1
20260507042145 9 353 0.0 0.0 0.00 3.84 0.00 92 1011.1
20260507042045 9 352 0.0 0.0 0.00 3.84 0.00 92 1011.1
20260507041945 9 350 0.0 1.6 0.00 3.84 0.00 92 1011.0
20260507041844 9 351 0.0 1.6 0.00 3.84 0.00 92 1011.0
20260507041746 9 7 0.0 1.6 0.00 3.84 0.00 92 1010.9
20260507041645 9 21 0.0 1.6 0.00 3.84 0.00 92 1011.0
20260507041545 9 22 0.0 1.6 0.00 3.84 0.00 92 1011.0
20260507041445 9 21 0.0 1.6 0.00 3.84 0.00 92 1011.0
20260507041344 9 22 0.0 1.6 0.00 3.84 0.00 92 1011.0
20260507041244 9 24 0.0 1.6 0.00 3.84 0.00 92 1011.0
20260507041145 9 25 0.0 1.6 0.00 3.84 0.00 92 1010.9
20260507041045 9 27 0.0 1.6 0.00 3.84 0.00 92 1010.9
20260507040945 9 36 0.0 1.6 0.00 3.84 0.00 92 1010.9
20260507040846 9 41 0.0 1.6 0.00 3.84 0.00 92 1010.9
20260507040746 9 15 0.0 1.6 0.00 3.84 0.00 92 1010.9
20260507040645 9 357 0.0 1.6 0.00 3.84 0.00 92 1010.9
20260507040545 9 350 0.0 1.6 0.00 3.84 0.00 92 1010.9
20260507040445 9 350 0.0 1.6 0.00 3.84 0.00 92 1010.9
20260507040345 9 350 0.0 1.6 0.00 3.84 0.00 92 1010.8
20260507040244 9 346 0.0 1.6 0.00 3.84 0.00 92 1010.9
20260507040146 9 335 0.0 3.2 0.00 3.84 0.00 92 1010.9
20260507040046 9 328 0.0 3.2 0.00 3.84 0.00 92 1010.9
20260507035945 9 324 1.6 3.2 0.00 3.84 0.00 92 1010.8
20260507035845 9 320 1.6 3.2 0.00 3.84 0.00 92 1010.9
20260507035745 9 316 1.6 3.2 0.00 3.84 0.00 92 1010.9
20260507035644 9 314 1.6 3.2 0.00 3.84 0.00 92 1011.0
20260507035544 9 314 1.6 3.2 0.00 3.84 0.00 92 1010.9
20260507035444 9 314 1.6 3.2 0.00 3.84 0.00 92 1010.9
20260507035346 9 313 1.6 3.2 0.00 3.84 0.00 92 1011.0
20260507035245 9 310 1.6 3.2 0.00 3.84 0.00 92 1010.9
20260507035145 9 309 1.6 3.2 0.00 3.84 0.00 92 1010.8
20260507035046 9 310 0.0 3.2 0.00 3.84 0.00 92 1010.9
20260507034946 9 310 0.0 3.2 0.00 3.84 0.00 92 1010.9
20260507034845 9 310 0.0 3.2 0.00 3.84 0.00 92 1010.9
20260507034745 9 309 0.0 3.2 0.00 3.84 0.00 92 1010.8
20260507034646 9 308 0.0 3.2 0.00 3.84 0.00 92 1010.7
20260507034546 9 306 0.0 3.2 0.00 3.84 0.00 92 1010.9
20260507034445 9 304 1.6 3.2 0.00 3.84 0.00 92 1010.9
20260507034345 9 307 1.6 3.2 0.00 3.84 0.00 92 1010.9
20260507034245 9 309 1.6 4.8 0.00 3.84 0.00 92 1010.9
20260507034145 9 308 1.6 4.8 0.00 3.84 0.00 92 1010.9
20260507034045 9 305 1.6 4.8 0.00 3.84 0.00 92 1010.9
20260507033945 9 301 3.2 4.8 0.00 3.84 0.00 92 1010.9
20260507033844 9 298 3.2 4.8 0.00 3.84 0.00 92 1010.9
20260507033744 9 294 3.2 4.8 0.00 3.84 0.00 92 1010.9
20260507033645 9 291 3.2 4.8 0.00 3.84 0.00 92 1010.9
20260507033545 9 289 3.2 4.8 0.00 3.84 0.00 92 1010.9
20260507033445 9 288 3.2 4.8 0.00 3.84 0.00 92 1010.9
20260507033344 9 286 3.2 4.8 0.00 3.84 0.00 92 1010.9
20260507033246 9 281 1.6 4.8 0.00 3.84 0.00 92 1010.9
20260507033145 9 281 1.6 4.8 0.00 3.84 0.00 92 1011.0
20260507033045 9 283 1.6 4.8 0.00 3.84 0.00 92 1010.9
20260507032945 9 286 1.6 4.8 0.00 3.84 0.00 92 1010.8
20260507032846 9 291 1.6 4.8 0.00 3.84 0.00 92 1010.9
20260507032746 9 293 1.6 4.8 0.00 3.84 0.00 92 1010.8
20260507032645 9 300 1.6 4.8 0.00 3.84 0.00 92 1010.8
20260507032545 9 311 0.0 3.2 0.00 3.84 0.00 92 1010.8
20260507032445 9 320 0.0 3.2 0.00 3.84 0.00 92 1010.8
20260507032344 9 326 0.0 1.6 0.00 3.84 0.00 92 1010.8
20260507032246 9 326 0.0 1.6 0.00 3.84 0.00 92 1010.9
20260507032145 9 326 0.0 1.6 0.00 3.84 0.00 92 1010.9
20260507032045 9 326 0.0 3.2 0.00 3.84 0.00 92 1010.8
20260507031945 9 326 0.0 3.2 0.00 3.84 0.00 92 1010.8
20260507031844 9 326 0.0 3.2 0.00 3.84 0.00 92 1010.8
20260507031746 9 326 0.0 3.2 0.00 3.84 0.00 92 1010.8
20260507031645 10 328 0.0 3.2 0.00 3.84 0.00 92 1010.7
20260507031545 10 330 1.6 3.2 0.00 3.84 0.00 92 1010.8
20260507031445 10 332 1.6 3.2 0.00 3.84 0.00 92 1010.8
20260507031344 10 332 1.6 3.2 0.00 3.84 0.00 92 1010.8
20260507031244 10 334 1.6 3.2 0.00 3.84 0.00 92 1010.8
20260507031145 10 337 1.6 3.2 0.00 3.84 0.00 92 1010.8
20260507031046 10 343 1.6 3.2 0.00 3.84 0.00 92 1010.8
20260507030945 10 348 1.6 3.2 0.00 3.84 0.00 92 1010.8
20260507030845 10 352 1.6 3.2 0.00 3.84 0.00 92 1010.7
20260507030745 10 353 1.6 3.2 0.00 3.84 0.00 92 1010.7
20260507030645 10 355 1.6 3.2 0.00 3.84 0.00 92 1010.7
20260507030544 10 355 0.0 3.2 0.00 3.84 0.00 92 1010.8
20260507030444 10 354 0.0 3.2 0.00 3.84 0.00 92 1010.8
20260507030344 10 353 1.6 3.2 0.00 3.84 0.00 92 1010.7
20260507030246 10 352 1.6 3.2 0.00 3.84 0.00 92 1010.7
20260507030145 10 348 1.6 3.2 0.00 3.84 0.00 92 1010.8
20260507030045 10 345 1.6 3.2 0.00 3.84 0.00 92 1010.7
20260507025945 10 341 1.6 3.2 0.00 3.84 0.00 92 1010.8
20260507025844 10 339 1.6 3.2 0.00 3.84 0.00 92 1010.8
20260507025744 10 338 1.6 3.2 0.00 3.84 0.00 92 1010.8
20260507025646 10 337 1.6 3.2 0.00 3.84 0.00 92 1010.8
20260507025546 10 334 1.6 3.2 0.00 3.84 0.00 92 1010.8
20260507025446 10 337 3.2 4.8 0.00 3.84 0.00 92 1010.8
20260507025345 10 339 3.2 6.4 0.00 3.84 0.00 92 1010.8
20260507025244 10 342 3.2 9.7 0.00 3.84 0.00 92 1010.8
20260507025144 10 342 3.2 9.7 0.00 3.84 0.00 92 1010.7
20260507025046 10 342 3.2 9.7 0.00 3.84 0.00 92 1010.7
20260507024946 10 343 4.8 9.7 0.00 3.84 0.00 92 1010.8
20260507024846 10 343 4.8 9.7 0.00 3.84 0.00 92 1010.8
20260507024745 10 342 4.8 9.7 0.00 3.84 0.00 92 1010.7
20260507024644 10 342 4.8 9.7 0.00 3.84 0.00 92 1010.7
20260507024544 10 342 4.8 9.7 0.00 3.84 0.00 92 1010.7
20260507024446 10 340 4.8 9.7 0.00 3.84 0.00 92 1010.7
20260507024345 10 338 4.8 9.7 0.00 3.84 0.00 92 1010.7
20260507024245 10 335 4.8 9.7 0.00 3.84 0.00 92 1010.7
20260507024145 10 333 4.8 9.7 0.00 3.84 0.00 92 1010.7
20260507024045 10 331 4.8 9.7 0.00 3.84 0.00 92 1010.7
20260507023945 10 329 3.2 9.7 0.00 3.84 0.00 92 1010.8
20260507023844 10 326 3.2 6.4 0.00 3.84 0.00 92 1010.8
20260507023744 10 323 3.2 6.4 0.00 3.84 0.00 92 1010.8
20260507023644 10 321 3.2 4.8 0.00 3.84 0.00 92 1010.7
20260507023546 10 317 1.6 4.8 0.00 3.84 0.00 92 1010.8
20260507023446 10 314 1.6 3.2 0.00 3.84 0.00 92 1010.8
20260507023345 10 314 1.6 3.2 0.00 3.84 0.00 92 1010.8
20260507023245 10 313 1.6 3.2 0.00 3.84 0.00 92 1010.8
20260507023144 10 315 1.6 3.2 0.00 3.84 0.00 92 1010.8
20260507023044 10 316 1.6 3.2 0.00 3.84 0.00 92 1010.7
20260507022944 10 318 1.6 3.2 0.00 3.84 0.00 92 1010.7
20260507022845 10 318 1.6 4.8 0.00 3.84 0.00 92 1010.7
20260507022745 10 320 1.6 6.4 0.00 3.84 0.00 92 1010.7
20260507022644 10 321 1.6 6.4 0.00 3.84 0.00 92 1010.7
20260507022544 10 321 1.6 6.4 0.00 3.84 0.00 92 1010.7
20260507022446 10 322 3.2 6.4 0.00 3.84 0.00 92 1010.6
20260507022345 10 322 3.2 6.4 0.00 3.84 0.00 92 1010.7
20260507022244 10 322 3.2 6.4 0.00 3.84 0.00 92 1010.8
20260507022144 10 323 4.8 6.4 0.00 3.84 0.00 92 1010.7
20260507022046 10 324 4.8 6.4 0.00 3.84 0.00 92 1010.7
20260507021946 10 325 4.8 6.4 0.00 3.84 0.00 92 1010.7
20260507021845 10 327 4.8 6.4 0.00 3.84 0.00 92 1010.6
20260507021745 10 329 4.8 6.4 0.00 3.84 0.00 92 1010.7
20260507021644 10 332 4.8 6.4 0.00 3.84 0.00 92 1010.7
20260507021544 10 333 3.2 6.4 0.00 3.84 0.00 92 1010.6
20260507021444 10 335 3.2 6.4 0.00 3.84 0.00 92 1010.6
20260507021344 10 337 3.2 4.8 0.00 3.84 0.00 92 1010.7
20260507021245 10 339 3.2 4.8 0.00 3.84 0.00 92 1010.6
20260507021145 10 341 3.2 4.8 0.00 3.84 0.00 92 1010.7
20260507021045 10 343 3.2 4.8 0.00 3.84 0.00 92 1010.7
20260507020945 10 342 3.2 4.8 0.00 3.84 0.00 92 1010.7
20260507020844 10 345 3.2 6.4 0.00 3.84 0.00 92 1010.7
20260507020744 10 345 3.2 6.4 0.00 3.84 0.00 92 1010.6
20260507020646 10 345 3.2 6.4 0.00 3.84 0.00 92 1010.7
20260507020545 10 346 4.8 6.4 0.00 3.84 0.00 92 1010.7
20260507020445 10 347 4.8 6.4 0.00 3.84 0.00 92 1010.7
20260507020345 10 347 4.8 6.4 0.00 3.84 0.00 92 1010.7
20260507020244 10 348 4.8 6.4 0.00 3.84 0.00 92 1010.6
20260507020144 10 348 4.8 6.4 0.00 3.84 0.00 92 1010.6
20260507020044 10 347 4.8 6.4 0.00 3.84 0.00 92 1010.6
20260507015945 10 346 4.8 6.4 0.00 3.84 0.00 92 1010.7
20260507015844 10 345 4.8 6.4 0.00 3.84 0.00 92 1010.7
20260507015744 10 343 4.8 6.4 0.00 3.84 0.00 92 1010.7
20260507015644 10 340 4.8 6.4 0.00 3.84 0.00 92 1010.6
20260507015546 10 337 4.8 6.4 0.00 3.84 0.00 92 1010.8
20260507015444 10 333 3.2 6.4 0.00 3.84 0.00 92 1010.7
20260507015345 10 330 3.2 6.4 0.00 3.84 0.00 92 1010.7
20260507015245 10 327 3.2 6.4 0.00 3.84 0.00 92 1010.7
20260507015144 10 326 3.2 6.4 0.00 3.84 0.00 92 1010.6
20260507015045 10 326 3.2 6.4 0.00 3.84 0.00 92 1010.6
20260507014945 10 327 3.2 6.4 0.00 3.84 0.00 92 1010.7
20260507014844 10 323 1.6 6.4 0.00 3.84 0.00 92 1010.7
20260507014744 10 324 1.6 4.8 0.00 3.84 0.00 92 1010.6
20260507014645 10 323 1.6 4.8 0.00 3.84 0.00 92 1010.6
20260507014545 10 326 1.6 4.8 0.00 3.84 0.00 92 1010.6
20260507014445 10 334 1.6 4.8 0.00 3.84 0.00 92 1010.5
20260507014345 10 343 0.0 3.2 0.00 3.84 0.00 92 1010.7
20260507014245 10 352 0.0 4.8 0.00 3.84 0.00 92 1010.6
20260507014144 10 349 1.6 6.4 0.00 3.84 0.00 92 1010.6
20260507014044 10 348 1.6 9.7 0.00 3.84 0.00 92 1010.6
20260507013944 10 347 1.6 9.7 0.00 3.84 0.00 92 1010.5
20260507013845 10 346 3.2 9.7 0.00 3.84 0.00 92 1010.5
20260507013744 10 347 3.2 9.7 0.00 3.84 0.00 92 1010.5
20260507013644 10 346 3.2 9.7 0.00 3.84 0.00 92 1010.6
20260507013544 10 345 4.8 9.7 0.00 3.84 0.00 92 1010.5
20260507013444 10 345 4.8 9.7 0.00 3.84 0.00 92 1010.5
20260507013345 10 343 4.8 9.7 0.00 3.84 0.00 92 1010.5
20260507013245 10 341 4.8 9.7 0.00 3.84 0.00 92 1010.5
20260507013144 10 339 4.8 9.7 0.00 3.84 0.00 92 1010.5
20260507013044 10 337 4.8 9.7 0.00 3.84 0.00 92 1010.4
20260507012944 10 334 4.8 9.7 0.00 3.84 0.00 92 1010.4
20260507012845 10 332 4.8 6.4 0.00 3.84 0.00 92 1010.5
20260507012745 10 329 3.2 6.4 0.00 3.84 0.00 92 1010.5
20260507012645 10 326 3.2 6.4 0.00 3.84 0.00 92 1010.4
20260507012545 10 324 3.2 6.4 0.00 3.84 0.00 92 1010.4
20260507012445 10 320 3.2 6.4 0.00 3.84 0.00 92 1010.4
20260507012344 10 320 3.2 6.4 0.00 3.84 0.00 92 1010.4
20260507012245 10 319 3.2 6.4 0.00 3.84 0.00 92 1010.4
20260507012145 10 317 1.6 6.4 0.00 3.84 0.00 91 1010.4
20260507012045 10 317 1.6 4.8 0.00 3.84 0.00 91 1010.4
20260507011945 10 319 1.6 4.8 0.00 3.84 0.00 92 1010.4
20260507011844 10 322 1.6 4.8 0.00 3.84 0.00 92 1010.3
20260507011744 10 326 1.6 4.8 0.00 3.84 0.00 92 1010.4
20260507011646 10 327 3.2 4.8 0.00 3.84 0.00 92 1010.4
20260507011545 10 331 3.2 4.8 0.00 3.84 0.00 92 1010.3
20260507011445 10 333 3.2 4.8 0.00 3.84 0.00 92 1010.4
20260507011345 10 334 3.2 4.8 0.00 3.84 0.00 92 1010.4
20260507011244 10 334 3.2 6.4 0.00 3.84 0.00 92 1010.3
20260507011144 10 335 3.2 6.4 0.00 3.84 0.00 91 1010.4
20260507011044 10 334 4.8 6.4 0.00 3.84 0.00 91 1010.4
20260507010946 10 333 4.8 6.4 0.00 3.84 0.00 92 1010.3
20260507010845 10 332 4.8 6.4 0.00 3.84 0.00 91 1010.3
20260507010745 10 330 4.8 6.4 0.00 3.84 0.00 91 1010.5
20260507010645 10 329 4.8 6.4 0.00 3.84 0.00 91 1010.3
20260507010544 10 326 4.8 6.4 0.00 3.84 0.00 92 1010.3
20260507010444 10 324 4.8 6.4 0.00 3.84 0.00 92 1010.4
20260507010345 10 322 4.8 6.4 0.00 3.84 0.00 92 1010.4
20260507010246 10 320 4.8 6.4 0.00 3.84 0.00 92 1010.3
20260507010145 10 317 3.2 6.4 0.00 3.84 0.00 91 1010.3
20260507010045 10 315 3.2 6.4 0.00 3.84 0.00 92 1010.3
20260507005945 11 313 3.2 6.4 0.00 3.84 0.00 92 1010.4
20260507005844 11 311 3.2 6.4 0.00 3.84 0.00 92 1010.3
20260507005744 11 309 3.2 6.4 0.00 3.84 0.00 91 1010.3
20260507005644 11 308 3.2 6.4 0.00 3.84 0.00 91 1010.4
20260507005544 11 308 3.2 6.4 0.00 3.84 0.00 91 1010.3
20260507005444 11 307 3.2 6.4 0.00 3.84 0.00 91 1010.3
20260507005345 11 306 3.2 6.4 0.00 3.84 0.00 91 1010.2
20260507005245 11 305 3.2 4.8 0.00 3.84 0.00 92 1010.2
20260507005144 11 307 3.2 4.8 0.00 3.84 0.00 91 1010.1
20260507005045 11 307 3.2 4.8 0.00 3.84 0.00 91 1010.2
20260507004945 11 307 3.2 4.8 0.00 3.84 0.00 91 1010.2
20260507004845 11 307 3.2 4.8 0.00 3.84 0.00 91 1010.2
20260507004744 11 307 1.6 4.8 0.00 3.84 0.00 91 1010.1
20260507004646 11 308 1.6 4.8 0.00 3.84 0.00 91 1010.1
20260507004546 11 307 1.6 4.8 0.00 3.84 0.00 91 1010.0
20260507004445 11 308 1.6 4.8 0.00 3.84 0.00 91 1010.0
20260507004344 11 310 1.6 4.8 0.00 3.84 0.00 91 1010.1
20260507004244 11 313 1.6 4.8 0.00 3.84 0.00 91 1010.1
20260507004145 11 311 1.6 4.8 0.00 3.84 0.00 91 1010.1
20260507004045 11 312 0.0 1.6 0.00 3.84 0.00 92 1010.1
20260507003945 11 314 0.0 1.6 0.00 3.84 0.00 91 1010.1
20260507003844 11 316 0.0 1.6 0.00 3.84 0.00 91 1010.0
20260507003744 11 318 0.0 1.6 0.00 3.84 0.00 92 1010.0
20260507003644 11 322 1.6 3.2 0.00 3.84 0.00 92 1010.0
20260507003546 11 327 1.6 3.2 0.00 3.84 0.00 92 1010.1
20260507003446 11 334 1.6 4.8 0.00 3.84 0.00 91 1010.0
20260507003346 11 336 1.6 4.8 0.00 3.84 0.00 91 1010.2
20260507003244 11 339 1.6 4.8 0.00 3.84 0.00 91 1010.1
20260507003146 11 339 1.6 4.8 0.00 3.84 0.00 91 1010.1
20260507003045 11 338 1.6 4.8 0.00 3.84 0.00 91 1010.1
20260507002944 11 340 1.6 4.8 0.00 3.84 0.00 91 1010.1
20260507002844 11 341 3.2 4.8 0.00 3.84 0.00 91 1010.1
20260507002746 11 342 3.2 4.8 0.00 3.84 0.00 91 1010.0
20260507002645 11 344 3.2 4.8 0.00 3.84 0.00 91 1010.2
20260507002545 11 344 1.6 4.8 0.00 3.84 0.00 91 1010.1
20260507002445 11 340 1.6 4.8 0.00 3.84 0.00 91 1010.1
20260507002344 11 338 1.6 4.8 0.00 3.84 0.00 91 1010.1
20260507002244 11 335 1.6 3.2 0.00 3.84 0.00 91 1010.2
20260507002146 11 335 1.6 3.2 0.00 3.84 0.00 91 1010.1
20260507002045 11 334 1.6 3.2 0.00 3.84 0.00 91 1010.2
20260507001945 11 331 3.2 4.8 0.00 3.84 0.00 91 1010.2
20260507001845 11 329 3.2 4.8 0.00 3.84 0.00 91 1010.2
20260507001744 11 326 3.2 4.8 0.00 3.84 0.00 91 1010.2
20260507001644 11 324 3.2 4.8 0.00 3.84 0.00 91 1010.2
20260507001544 11 324 3.2 4.8 0.00 3.84 0.00 91 1010.2
20260507001445 11 325 3.2 4.8 0.00 3.84 0.00 91 1010.3
20260507001344 11 326 3.2 4.8 0.00 3.84 0.00 91 1010.1
20260507001244 11 327 1.6 4.8 0.00 3.84 0.00 91 1010.1
20260507001146 11 327 1.6 4.8 0.00 3.84 0.00 91 1010.1
20260507001045 11 327 1.6 4.8 0.00 3.84 0.00 91 1010.1
20260507000945 11 329 1.6 4.8 0.00 3.84 0.00 91 1010.1
20260507000844 11 331 1.6 3.2 0.00 3.84 0.00 91 1010.1
20260507000744 11 334 1.6 3.2 0.00 3.84 0.00 91 1010.2
20260507000645 11 336 0.0 3.2 0.00 3.84 0.00 91 1010.2
20260507000545 11 338 0.0 1.6 0.00 3.84 0.00 91 1010.1
20260507000445 11 337 0.0 1.6 0.00 3.84 0.00 91 1010.2
20260507000345 11 337 0.0 1.6 0.00 3.84 0.00 91 1010.1
20260507000245 11 337 0.0 1.6 0.00 3.84 0.00 91 1010.1
20260507000144 11 337 0.0 1.6 0.00 3.84 0.00 91 1010.1
20260507000044 11 337 0.0 1.6 0.00 3.84 0.00 91 1010.1
20260506235945 11 337 0.0 1.6 0.00 3.84 0.00 91 1010.1
20260506235845 11 337 0.0 1.6 0.00 3.84 0.00 91 1010.2
20260506235745 11 338 0.0 1.6 0.00 3.84 0.00 91 1010.1
20260506235645 11 338 0.0 1.6 0.00 3.84 0.00 91 1010.1
20260506235545 11 338 0.0 1.6 0.00 3.84 0.00 91 1010.1
20260506235445 11 338 0.0 1.6 0.00 3.84 0.00 91 1010.1